| time (UTC) | temp C | wind direction | speed KPH | gust KPH | rain 1hr cm | rain 24hr cm | rain mn cm | humidity % | barometer mb |
| 20260509034432 | 12 | 336 | 3.2 | 9.7 | 0.03 | 0.25 | 0.25 | 90 | 1008.3 |
| 20260509034337 | 12 | 98 | 3.2 | 9.7 | 0.03 | 0.25 | 0.25 | 89 | 1008.3 |
| 20260509034231 | 12 | 93 | 3.2 | 11.3 | 0.03 | 0.25 | 0.25 | 89 | 1008.4 |
| 20260509034132 | 12 | 12 | 3.2 | 11.3 | 0.03 | 0.25 | 0.25 | 90 | 1008.4 |
| 20260509034033 | 12 | 88 | 3.2 | 11.3 | 0.03 | 0.25 | 0.25 | 90 | 1008.4 |
| 20260509033926 | 12 | 101 | 3.2 | 11.3 | 0.03 | 0.25 | 0.25 | 90 | 1008.4 |
| 20260509033822 | 12 | 116 | 3.2 | 11.3 | 0.03 | 0.25 | 0.25 | 90 | 1008.4 |
| 20260509033724 | 12 | 83 | 3.2 | 11.3 | 0.03 | 0.25 | 0.25 | 90 | 1008.4 |
| 20260509033621 | 12 | 12 | 3.2 | 11.3 | 0.03 | 0.25 | 0.25 | 90 | 1008.4 |
| 20260509033525 | 12 | 27 | 3.2 | 11.3 | 0.03 | 0.25 | 0.25 | 90 | 1008.4 |
| 20260509033420 | 12 | 14 | 3.2 | 11.3 | 0.03 | 0.25 | 0.25 | 90 | 1008.4 |
| 20260509033321 | 12 | 66 | 3.2 | 11.3 | 0.03 | 0.25 | 0.25 | 90 | 1008.3 |
| 20260509033214 | 12 | 1 | 3.2 | 11.3 | 0.03 | 0.25 | 0.25 | 89 | 1008.4 |
| 20260509033114 | 12 | 47 | 4.8 | 11.3 | 0.03 | 0.25 | 0.25 | 89 | 1008.4 |
| 20260509033011 | 12 | 28 | 3.2 | 11.3 | 0.03 | 0.25 | 0.25 | 89 | 1008.4 |
| 20260509032911 | 12 | 81 | 4.8 | 11.3 | 0.03 | 0.25 | 0.25 | 89 | 1008.4 |
| 20260509032812 | 12 | 97 | 3.2 | 11.3 | 0.03 | 0.25 | 0.25 | 89 | 1008.4 |
| 20260509032710 | 12 | 47 | 3.2 | 11.3 | 0.03 | 0.25 | 0.25 | 89 | 1008.5 |
| 20260509032610 | 12 | 119 | 3.2 | 11.3 | 0.03 | 0.25 | 0.25 | 89 | 1008.5 |
| 20260509032508 | 12 | 94 | 3.2 | 11.3 | 0.03 | 0.25 | 0.25 | 89 | 1008.6 |
| 20260509032405 | 12 | 35 | 3.2 | 11.3 | 0.03 | 0.25 | 0.25 | 89 | 1008.6 |
| 20260509032306 | 12 | 41 | 3.2 | 11.3 | 0.03 | 0.25 | 0.25 | 89 | 1008.6 |
| 20260509032206 | 12 | 73 | 3.2 | 11.3 | 0.03 | 0.25 | 0.25 | 89 | 1008.6 |
| 20260509032106 | 12 | 73 | 3.2 | 11.3 | 0.03 | 0.25 | 0.25 | 89 | 1008.7 |
| 20260509032011 | 12 | 338 | 3.2 | 11.3 | 0.03 | 0.25 | 0.25 | 89 | 1008.6 |
| 20260509031906 | 12 | 12 | 3.2 | 11.3 | 0.03 | 0.25 | 0.25 | 89 | 1008.6 |
| 20260509031809 | 12 | 52 | 4.8 | 11.3 | 0.03 | 0.25 | 0.25 | 89 | 1008.6 |
| 20260509031704 | 12 | 78 | 4.8 | 11.3 | 0.03 | 0.25 | 0.25 | 89 | 1008.6 |
| 20260509031557 | 12 | 8 | 4.8 | 11.3 | 0.03 | 0.25 | 0.25 | 89 | 1008.6 |
| 20260509031501 | 12 | 60 | 4.8 | 11.3 | 0.03 | 0.25 | 0.25 | 89 | 1008.6 |
| 20260509031358 | 12 | 63 | 4.8 | 11.3 | 0.03 | 0.25 | 0.25 | 90 | 1008.5 |
| 20260509031258 | 12 | 70 | 4.8 | 11.3 | 0.03 | 0.25 | 0.25 | 90 | 1008.5 |
| 20260509031155 | 12 | 318 | 3.2 | 11.3 | 0.03 | 0.25 | 0.25 | 90 | 1008.5 |
| 20260509031056 | 12 | 2 | 3.2 | 11.3 | 0.03 | 0.25 | 0.25 | 90 | 1008.5 |
| 20260509030953 | 12 | 80 | 3.2 | 11.3 | 0.03 | 0.25 | 0.25 | 90 | 1008.6 |
| 20260509030853 | 12 | 42 | 3.2 | 11.3 | 0.03 | 0.25 | 0.25 | 90 | 1008.5 |
| 20260509030752 | 12 | 59 | 3.2 | 9.7 | 0.03 | 0.25 | 0.25 | 90 | 1008.6 |
| 20260509030700 | 12 | 25 | 3.2 | 8.0 | 0.03 | 0.25 | 0.25 | 90 | 1008.6 |
| 20260509030547 | 12 | 2 | 3.2 | 8.0 | 0.03 | 0.25 | 0.25 | 90 | 1008.6 |
| 20260509030451 | 12 | 35 | 3.2 | 14.5 | 0.03 | 0.25 | 0.25 | 90 | 1008.6 |
| 20260509030347 | 12 | 4 | 3.2 | 14.5 | 0.03 | 0.25 | 0.25 | 90 | 1008.6 |
| 20260509030248 | 12 | 3 | 3.2 | 14.5 | 0.03 | 0.25 | 0.25 | 90 | 1008.6 |
| 20260509030141 | 12 | 322 | 3.2 | 14.5 | 0.03 | 0.25 | 0.25 | 90 | 1008.6 |
| 20260509030043 | 12 | 154 | 3.2 | 14.5 | 0.03 | 0.25 | 0.25 | 90 | 1008.6 |
| 20260509025938 | 12 | 11 | 3.2 | 14.5 | 0.03 | 0.25 | 0.25 | 90 | 1008.6 |
| 20260509025843 | 12 | 87 | 4.8 | 14.5 | 0.03 | 0.25 | 0.25 | 90 | 1008.7 |
| 20260509025747 | 12 | 12 | 4.8 | 14.5 | 0.03 | 0.25 | 0.25 | 90 | 1008.6 |
| 20260509025637 | 12 | 18 | 3.2 | 14.5 | 0.03 | 0.25 | 0.25 | 90 | 1008.6 |
| 20260509025538 | 12 | 20 | 3.2 | 14.5 | 0.03 | 0.25 | 0.25 | 90 | 1008.6 |
| 20260509025435 | 12 | 50 | 3.2 | 14.5 | 0.03 | 0.25 | 0.25 | 90 | 1008.7 |
| 20260509025333 | 12 | 16 | 3.2 | 14.5 | 0.03 | 0.25 | 0.25 | 90 | 1008.7 |
| 20260509025236 | 12 | 55 | 3.2 | 14.5 | 0.03 | 0.25 | 0.25 | 90 | 1008.7 |
| 20260509025134 | 12 | 34 | 3.2 | 14.5 | 0.00 | 0.23 | 0.25 | 90 | 1008.7 |
| 20260509025033 | 12 | 25 | 3.2 | 14.5 | 0.00 | 0.23 | 0.23 | 90 | 1008.7 |
| 20260509024933 | 12 | 64 | 3.2 | 11.3 | 0.00 | 0.23 | 0.23 | 90 | 1008.7 |
| 20260509024831 | 12 | 77 | 3.2 | 11.3 | 0.00 | 0.23 | 0.23 | 90 | 1008.6 |
| 20260509024732 | 12 | 344 | 3.2 | 11.3 | 0.00 | 0.23 | 0.23 | 90 | 1008.7 |
| 20260509024633 | 12 | 34 | 3.2 | 11.3 | 0.00 | 0.23 | 0.23 | 90 | 1008.7 |
| 20260509024531 | 12 | 335 | 3.2 | 8.0 | 0.00 | 0.23 | 0.23 | 90 | 1008.7 |
| 20260509024431 | 12 | 14 | 3.2 | 8.0 | 0.00 | 0.23 | 0.23 | 90 | 1008.7 |
| 20260509024335 | 12 | 12 | 3.2 | 8.0 | 0.00 | 0.23 | 0.23 | 90 | 1008.8 |
| 20260509024231 | 12 | 355 | 1.6 | 8.0 | 0.00 | 0.23 | 0.23 | 90 | 1008.8 |
| 20260509024131 | 12 | 6 | 3.2 | 8.0 | 0.00 | 0.23 | 0.23 | 90 | 1008.8 |
| 20260509024031 | 12 | 41 | 3.2 | 8.0 | 0.00 | 0.23 | 0.23 | 90 | 1008.8 |
| 20260509023932 | 12 | 31 | 1.6 | 8.0 | 0.00 | 0.23 | 0.23 | 90 | 1008.8 |
| 20260509023835 | 12 | 22 | 1.6 | 8.0 | 0.00 | 0.23 | 0.23 | 90 | 1008.8 |
| 20260509023735 | 12 | 2 | 1.6 | 8.0 | 0.00 | 0.23 | 0.23 | 90 | 1008.7 |
| 20260509023630 | 12 | 52 | 1.6 | 8.0 | 0.00 | 0.23 | 0.23 | 90 | 1008.7 |
| 20260509023526 | 12 | 3 | 3.2 | 8.0 | 0.00 | 0.23 | 0.23 | 90 | 1008.7 |
| 20260509023438 | 12 | 340 | 3.2 | 8.0 | 0.00 | 0.23 | 0.23 | 90 | 1008.7 |
| 20260509023328 | 12 | 25 | 3.2 | 8.0 | 0.00 | 0.23 | 0.23 | 90 | 1008.7 |
| 20260509023223 | 12 | 36 | 3.2 | 8.0 | 0.00 | 0.23 | 0.23 | 90 | 1008.8 |
| 20260509023117 | 12 | 358 | 3.2 | 8.0 | 0.00 | 0.23 | 0.23 | 90 | 1008.8 |
| 20260509023022 | 12 | 16 | 3.2 | 9.7 | 0.00 | 0.23 | 0.23 | 90 | 1008.7 |
| 20260509022913 | 12 | 333 | 3.2 | 9.7 | 0.00 | 0.23 | 0.23 | 90 | 1008.8 |
| 20260509022818 | 12 | 12 | 3.2 | 9.7 | 0.00 | 0.23 | 0.23 | 90 | 1008.7 |
| 20260509022716 | 12 | 27 | 3.2 | 9.7 | 0.00 | 0.23 | 0.23 | 90 | 1008.8 |
| 20260509022618 | 12 | 73 | 3.2 | 9.7 | 0.00 | 0.23 | 0.23 | 90 | 1008.7 |
| 20260509022518 | 12 | 37 | 3.2 | 9.7 | 0.00 | 0.23 | 0.23 | 90 | 1008.7 |
| 20260509022419 | 12 | 7 | 3.2 | 9.7 | 0.00 | 0.23 | 0.23 | 90 | 1008.7 |
| 20260509022315 | 12 | 18 | 3.2 | 9.7 | 0.00 | 0.23 | 0.23 | 90 | 1008.7 |
| 20260509022223 | 12 | 56 | 3.2 | 9.7 | 0.00 | 0.23 | 0.23 | 90 | 1008.8 |
| 20260509022114 | 12 | 27 | 3.2 | 9.7 | 0.00 | 0.23 | 0.23 | 90 | 1008.8 |
| 20260509022014 | 12 | 12 | 1.6 | 8.0 | 0.00 | 0.23 | 0.23 | 90 | 1008.8 |
| 20260509021915 | 12 | 302 | 1.6 | 8.0 | 0.00 | 0.23 | 0.23 | 90 | 1008.8 |
| 20260509021818 | 12 | 81 | 1.6 | 8.0 | 0.00 | 0.23 | 0.23 | 90 | 1008.9 |
| 20260509021717 | 12 | 34 | 3.2 | 8.0 | 0.00 | 0.23 | 0.23 | 90 | 1008.9 |
| 20260509021613 | 12 | 4 | 3.2 | 8.0 | 0.00 | 0.23 | 0.23 | 90 | 1008.8 |
| 20260509021514 | 12 | 10 | 3.2 | 8.0 | 0.00 | 0.23 | 0.23 | 90 | 1008.8 |
| 20260509021424 | 12 | 25 | 3.2 | 8.0 | 0.00 | 0.23 | 0.23 | 90 | 1008.8 |
| 20260509021321 | 12 | 10 | 3.2 | 8.0 | 0.00 | 0.23 | 0.23 | 90 | 1008.8 |
| 20260509021210 | 12 | 4 | 3.2 | 8.0 | 0.00 | 0.23 | 0.23 | 90 | 1008.8 |
| 20260509021111 | 12 | 53 | 3.2 | 8.0 | 0.00 | 0.23 | 0.23 | 90 | 1008.8 |
| 20260509021012 | 12 | 335 | 3.2 | 9.7 | 0.00 | 0.23 | 0.23 | 90 | 1008.8 |
| 20260509020912 | 12 | 93 | 3.2 | 9.7 | 0.00 | 0.23 | 0.23 | 90 | 1008.8 |
| 20260509020807 | 12 | 339 | 3.2 | 9.7 | 0.00 | 0.23 | 0.23 | 90 | 1008.8 |
| 20260509020704 | 12 | 350 | 3.2 | 9.7 | 0.00 | 0.23 | 0.23 | 90 | 1008.8 |
| 20260509020603 | 12 | 341 | 3.2 | 11.3 | 0.00 | 0.23 | 0.23 | 90 | 1008.8 |
| 20260509020504 | 12 | 2 | 3.2 | 11.3 | 0.00 | 0.23 | 0.23 | 90 | 1008.8 |
| 20260509020400 | 12 | 84 | 3.2 | 11.3 | 0.00 | 0.23 | 0.23 | 90 | 1008.8 |
| 20260509020302 | 12 | 68 | 3.2 | 11.3 | 0.00 | 0.23 | 0.23 | 90 | 1008.7 |
| 20260509020200 | 12 | 344 | 3.2 | 11.3 | 0.00 | 0.23 | 0.23 | 90 | 1008.8 |
| 20260509020100 | 12 | 33 | 3.2 | 11.3 | 0.00 | 0.23 | 0.23 | 90 | 1008.7 |
| 20260509015957 | 12 | 323 | 3.2 | 11.3 | 0.00 | 0.23 | 0.23 | 90 | 1008.7 |
| 20260509015857 | 12 | 17 | 3.2 | 11.3 | 0.00 | 0.23 | 0.23 | 90 | 1008.7 |
| 20260509015757 | 12 | 16 | 1.6 | 11.3 | 0.00 | 0.23 | 0.23 | 90 | 1008.8 |
| 20260509015657 | 12 | 6 | 1.6 | 11.3 | 0.00 | 0.23 | 0.23 | 90 | 1008.8 |
| 20260509015554 | 12 | 11 | 1.6 | 6.4 | 0.00 | 0.23 | 0.23 | 90 | 1008.8 |
| 20260509015456 | 12 | 43 | 1.6 | 6.4 | 0.00 | 0.23 | 0.23 | 90 | 1008.7 |
| 20260509015351 | 12 | 358 | 1.6 | 6.4 | 0.00 | 0.23 | 0.23 | 90 | 1008.7 |
| 20260509015252 | 12 | 24 | 1.6 | 6.4 | 0.00 | 0.23 | 0.23 | 90 | 1008.7 |
| 20260509015151 | 12 | 352 | 1.6 | 6.4 | 0.00 | 0.23 | 0.23 | 90 | 1008.7 |
| 20260509015051 | 12 | 2 | 1.6 | 6.4 | 0.00 | 0.23 | 0.23 | 90 | 1008.7 |
| 20260509014950 | 12 | 353 | 1.6 | 6.4 | 0.00 | 0.23 | 0.23 | 90 | 1008.6 |
| 20260509014851 | 12 | 20 | 1.6 | 6.4 | 0.00 | 0.23 | 0.23 | 90 | 1008.7 |
| 20260509014749 | 12 | 18 | 1.6 | 6.4 | 0.00 | 0.23 | 0.23 | 90 | 1008.7 |
| 20260509014648 | 12 | 14 | 1.6 | 6.4 | 0.00 | 0.23 | 0.23 | 90 | 1008.7 |
| 20260509014545 | 12 | 347 | 1.6 | 6.4 | 0.00 | 0.23 | 0.23 | 90 | 1008.7 |
| 20260509014447 | 12 | 23 | 1.6 | 6.4 | 0.00 | 0.23 | 0.23 | 90 | 1008.7 |
| 20260509014344 | 12 | 41 | 1.6 | 6.4 | 0.00 | 0.23 | 0.23 | 90 | 1008.7 |
| 20260509014237 | 12 | 359 | 1.6 | 6.4 | 0.00 | 0.23 | 0.23 | 90 | 1008.6 |
| 20260509014136 | 12 | 354 | 1.6 | 6.4 | 0.00 | 0.23 | 0.23 | 90 | 1008.6 |
| 20260509014039 | 12 | 41 | 1.6 | 8.0 | 0.00 | 0.23 | 0.23 | 90 | 1008.7 |
| 20260509013934 | 12 | 113 | 1.6 | 8.0 | 0.00 | 0.23 | 0.23 | 90 | 1008.6 |
| 20260509013836 | 12 | 326 | 1.6 | 8.0 | 0.00 | 0.23 | 0.23 | 90 | 1008.7 |
| 20260509013732 | 12 | 0 | 1.6 | 8.0 | 0.00 | 0.23 | 0.23 | 90 | 1008.8 |
| 20260509013634 | 12 | 43 | 1.6 | 8.0 | 0.00 | 0.23 | 0.23 | 90 | 1008.7 |
| 20260509013527 | 12 | 74 | 1.6 | 8.0 | 0.00 | 0.23 | 0.23 | 90 | 1008.7 |
| 20260509013428 | 12 | 0 | 1.6 | 8.0 | 0.00 | 0.23 | 0.23 | 90 | 1008.7 |
| 20260509013330 | 12 | 38 | 1.6 | 8.0 | 0.00 | 0.23 | 0.23 | 90 | 1008.7 |
| 20260509013226 | 12 | 358 | 1.6 | 8.0 | 0.00 | 0.23 | 0.23 | 90 | 1008.7 |
| 20260509013124 | 12 | 16 | 1.6 | 8.0 | 0.00 | 0.23 | 0.23 | 90 | 1008.7 |
| 20260509013023 | 12 | 76 | 1.6 | 4.8 | 0.00 | 0.23 | 0.23 | 90 | 1008.7 |
| 20260509012920 | 12 | 324 | 1.6 | 4.8 | 0.00 | 0.23 | 0.23 | 90 | 1008.6 |
| 20260509012822 | 12 | 104 | 1.6 | 4.8 | 0.00 | 0.23 | 0.23 | 90 | 1008.7 |
| 20260509012717 | 12 | 77 | 1.6 | 4.8 | 0.00 | 0.23 | 0.23 | 90 | 1008.6 |
| 20260509012618 | 12 | 49 | 1.6 | 6.4 | 0.00 | 0.23 | 0.23 | 90 | 1008.6 |
| 20260509012522 | 12 | 54 | 1.6 | 6.4 | 0.00 | 0.23 | 0.23 | 90 | 1008.6 |
| 20260509012415 | 12 | 12 | 1.6 | 6.4 | 0.00 | 0.23 | 0.23 | 90 | 1008.6 |
| 20260509012315 | 12 | 35 | 1.6 | 6.4 | 0.00 | 0.23 | 0.23 | 90 | 1008.6 |
| 20260509012214 | 12 | 44 | 1.6 | 6.4 | 0.00 | 0.23 | 0.23 | 90 | 1008.6 |
| 20260509012114 | 12 | 25 | 1.6 | 6.4 | 0.00 | 0.23 | 0.23 | 90 | 1008.6 |
| 20260509012013 | 12 | 12 | 1.6 | 6.4 | 0.00 | 0.23 | 0.23 | 90 | 1008.6 |
| 20260509011815 | 12 | 317 | 1.6 | 6.4 | 0.00 | 0.23 | 0.23 | 90 | 1008.7 |
| 20260509011713 | 12 | 27 | 1.6 | 6.4 | 0.00 | 0.23 | 0.23 | 90 | 1008.6 |
| 20260509011611 | 12 | 29 | 1.6 | 4.8 | 0.00 | 0.23 | 0.23 | 90 | 1008.6 |
| 20260509011512 | 12 | 20 | 1.6 | 4.8 | 0.00 | 0.23 | 0.23 | 90 | 1008.6 |
| 20260509011409 | 12 | 9 | 1.6 | 4.8 | 0.00 | 0.23 | 0.23 | 90 | 1008.6 |
| 20260509011308 | 12 | 81 | 0.0 | 3.2 | 0.00 | 0.23 | 0.23 | 90 | 1008.7 |
| 20260509011207 | 12 | 341 | 0.0 | 3.2 | 0.00 | 0.23 | 0.23 | 90 | 1008.7 |
| 20260509011107 | 12 | 4 | 0.0 | 3.2 | 0.00 | 0.23 | 0.23 | 90 | 1008.7 |
| 20260509011008 | 12 | 4 | 0.0 | 3.2 | 0.00 | 0.23 | 0.23 | 90 | 1008.7 |
| 20260509010906 | 12 | 81 | 0.0 | 3.2 | 0.00 | 0.23 | 0.23 | 90 | 1008.7 |
| 20260509010805 | 12 | 65 | 0.0 | 3.2 | 0.00 | 0.23 | 0.23 | 90 | 1008.7 |
| 20260509010706 | 12 | 65 | 0.0 | 3.2 | 0.00 | 0.23 | 0.23 | 90 | 1008.6 |
| 20260509010605 | 12 | 11 | 0.0 | 3.2 | 0.00 | 0.23 | 0.23 | 90 | 1008.7 |
| 20260509010507 | 12 | 13 | 0.0 | 3.2 | 0.00 | 0.23 | 0.23 | 90 | 1008.7 |
| 20260509010405 | 12 | 12 | 1.6 | 3.2 | 0.00 | 0.23 | 0.23 | 90 | 1008.7 |
| 20260509010305 | 12 | 34 | 1.6 | 3.2 | 0.00 | 0.23 | 0.23 | 90 | 1008.7 |
| 20260509010201 | 12 | 17 | 1.6 | 3.2 | 0.00 | 0.23 | 0.23 | 90 | 1008.7 |
| 20260509010101 | 12 | 43 | 1.6 | 3.2 | 0.00 | 0.23 | 0.23 | 90 | 1008.7 |
| 20260509010001 | 12 | 34 | 1.6 | 3.2 | 0.00 | 0.23 | 0.23 | 90 | 1008.8 |
| 20260509005902 | 12 | 72 | 1.6 | 3.2 | 0.03 | 0.23 | 0.23 | 90 | 1008.7 |
| 20260509005801 | 12 | 99 | 1.6 | 3.2 | 0.03 | 0.23 | 0.23 | 90 | 1008.6 |
| 20260509005701 | 12 | 104 | 1.6 | 3.2 | 0.03 | 0.23 | 0.23 | 90 | 1008.6 |
| 20260509005557 | 12 | 85 | 1.6 | 3.2 | 0.03 | 0.23 | 0.23 | 90 | 1008.7 |
| 20260509005457 | 12 | 30 | 1.6 | 3.2 | 0.03 | 0.23 | 0.23 | 90 | 1008.7 |
| 20260509005359 | 12 | 51 | 1.6 | 3.2 | 0.03 | 0.23 | 0.23 | 90 | 1008.7 |
| 20260509005258 | 12 | 49 | 1.6 | 3.2 | 0.03 | 0.23 | 0.23 | 90 | 1008.6 |
| 20260509005155 | 12 | 83 | 1.6 | 3.2 | 0.03 | 0.23 | 0.23 | 90 | 1008.6 |
| 20260509005100 | 12 | 358 | 1.6 | 4.8 | 0.03 | 0.23 | 0.23 | 90 | 1008.7 |
| 20260509004956 | 12 | 27 | 1.6 | 4.8 | 0.03 | 0.23 | 0.23 | 90 | 1008.6 |
| 20260509004853 | 12 | 43 | 1.6 | 4.8 | 0.03 | 0.23 | 0.23 | 90 | 1008.6 |
| 20260509004755 | 12 | 59 | 1.6 | 4.8 | 0.03 | 0.23 | 0.23 | 90 | 1008.7 |
| 20260509004654 | 12 | 49 | 1.6 | 4.8 | 0.03 | 0.23 | 0.23 | 90 | 1008.7 |
| 20260509004553 | 12 | 318 | 1.6 | 4.8 | 0.03 | 0.23 | 0.23 | 90 | 1008.7 |
| 20260509004453 | 12 | 77 | 1.6 | 4.8 | 0.03 | 0.23 | 0.23 | 90 | 1008.7 |
| 20260509004355 | 12 | 101 | 1.6 | 4.8 | 0.03 | 0.23 | 0.23 | 90 | 1008.7 |
| 20260509004253 | 12 | 91 | 1.6 | 4.8 | 0.03 | 0.23 | 0.23 | 90 | 1008.7 |
| 20260509004152 | 12 | 353 | 1.6 | 4.8 | 0.03 | 0.23 | 0.23 | 90 | 1008.7 |
| 20260509004056 | 12 | 27 | 1.6 | 4.8 | 0.03 | 0.23 | 0.23 | 90 | 1008.7 |
| 20260509004000 | 12 | 49 | 1.6 | 4.8 | 0.03 | 0.23 | 0.23 | 90 | 1008.7 |
| 20260509003853 | 12 | 343 | 1.6 | 4.8 | 0.05 | 0.23 | 0.23 | 90 | 1008.7 |
| 20260509003754 | 12 | 106 | 1.6 | 3.2 | 0.05 | 0.23 | 0.23 | 90 | 1008.7 |
| 20260509003653 | 12 | 21 | 1.6 | 3.2 | 0.05 | 0.23 | 0.23 | 90 | 1008.7 |
| 20260509003553 | 12 | 21 | 1.6 | 3.2 | 0.05 | 0.23 | 0.23 | 90 | 1008.7 |
| 20260509003500 | 12 | 31 | 1.6 | 3.2 | 0.05 | 0.23 | 0.23 | 90 | 1008.7 |
| 20260509003353 | 12 | 332 | 1.6 | 3.2 | 0.05 | 0.23 | 0.23 | 90 | 1008.7 |
| 20260509003254 | 12 | 33 | 1.6 | 3.2 | 0.05 | 0.23 | 0.23 | 90 | 1008.8 |
| 20260509003153 | 12 | 68 | 1.6 | 3.2 | 0.05 | 0.23 | 0.23 | 90 | 1008.8 |
| 20260509003054 | 12 | 345 | 1.6 | 3.2 | 0.05 | 0.23 | 0.23 | 90 | 1008.8 |
| 20260509002955 | 12 | 27 | 1.6 | 3.2 | 0.05 | 0.23 | 0.23 | 90 | 1008.8 |
| 20260509002856 | 12 | 28 | 1.6 | 3.2 | 0.05 | 0.23 | 0.23 | 90 | 1008.7 |
| 20260509002754 | 12 | 37 | 1.6 | 3.2 | 0.05 | 0.23 | 0.23 | 90 | 1008.7 |
| 20260509002655 | 12 | 320 | 1.6 | 3.2 | 0.05 | 0.23 | 0.23 | 90 | 1008.7 |
| 20260509002554 | 12 | 83 | 1.6 | 3.2 | 0.05 | 0.23 | 0.23 | 90 | 1008.7 |
| 20260509002455 | 12 | 41 | 1.6 | 3.2 | 0.05 | 0.23 | 0.23 | 90 | 1008.6 |
| 20260509002354 | 12 | 72 | 1.6 | 3.2 | 0.05 | 0.23 | 0.23 | 90 | 1008.6 |
| 20260509002254 | 12 | 25 | 1.6 | 4.8 | 0.05 | 0.23 | 0.23 | 90 | 1008.6 |
| 20260509002153 | 12 | 20 | 1.6 | 4.8 | 0.05 | 0.23 | 0.23 | 90 | 1008.6 |
| 20260509002053 | 12 | 36 | 1.6 | 6.4 | 0.05 | 0.23 | 0.23 | 90 | 1008.6 |
| 20260509001954 | 12 | 341 | 1.6 | 6.4 | 0.05 | 0.23 | 0.23 | 90 | 1008.6 |
| 20260509001854 | 12 | 54 | 1.6 | 6.4 | 0.05 | 0.23 | 0.23 | 90 | 1008.7 |
| 20260509001753 | 12 | 50 | 1.6 | 6.4 | 0.05 | 0.23 | 0.23 | 90 | 1008.7 |
| 20260509001654 | 12 | 54 | 1.6 | 6.4 | 0.05 | 0.23 | 0.23 | 90 | 1008.7 |
| 20260509001555 | 12 | 64 | 1.6 | 6.4 | 0.05 | 0.23 | 0.23 | 90 | 1008.7 |
| 20260509001454 | 12 | 26 | 1.6 | 6.4 | 0.05 | 0.23 | 0.23 | 90 | 1008.7 |
| 20260509001353 | 12 | 33 | 1.6 | 6.4 | 0.05 | 0.23 | 0.23 | 90 | 1008.7 |
| 20260509001255 | 12 | 359 | 1.6 | 6.4 | 0.05 | 0.23 | 0.23 | 89 | 1008.7 |
| 20260509001155 | 12 | 25 | 1.6 | 6.4 | 0.05 | 0.23 | 0.23 | 89 | 1008.7 |
| 20260509001054 | 12 | 346 | 1.6 | 6.4 | 0.05 | 0.23 | 0.23 | 89 | 1008.7 |
| 20260509000953 | 12 | 46 | 1.6 | 6.4 | 0.05 | 0.23 | 0.23 | 89 | 1008.7 |
| 20260509000853 | 12 | 16 | 1.6 | 6.4 | 0.05 | 0.23 | 0.23 | 89 | 1008.7 |
| 20260509000754 | 12 | 46 | 1.6 | 6.4 | 0.05 | 0.23 | 0.23 | 89 | 1008.7 |
| 20260509000653 | 12 | 129 | 1.6 | 6.4 | 0.05 | 0.23 | 0.23 | 89 | 1008.7 |
| 20260509000553 | 12 | 7 | 1.6 | 6.4 | 0.05 | 0.23 | 0.23 | 89 | 1008.8 |
| 20260509000454 | 12 | 67 | 1.6 | 6.4 | 0.05 | 0.23 | 0.23 | 89 | 1008.8 |
| 20260509000355 | 12 | 72 | 1.6 | 6.4 | 0.05 | 0.23 | 0.23 | 89 | 1008.8 |
| 20260509000259 | 12 | 18 | 1.6 | 6.4 | 0.05 | 0.23 | 0.23 | 89 | 1008.8 |
| 20260509000154 | 12 | 27 | 1.6 | 6.4 | 0.05 | 0.23 | 0.23 | 89 | 1008.9 |
| 20260509000052 | 12 | 8 | 1.6 | 4.8 | 0.05 | 0.23 | 0.23 | 89 | 1008.9 |
| 20260508235954 | 12 | 26 | 1.6 | 4.8 | 0.03 | 0.20 | 0.23 | 90 | 1008.8 |
| 20260508235856 | 12 | 347 | 1.6 | 4.8 | 0.03 | 0.20 | 0.20 | 90 | 1008.9 |
| 20260508235756 | 12 | 58 | 1.6 | 4.8 | 0.03 | 0.20 | 0.20 | 89 | 1008.9 |
| 20260508235653 | 12 | 35 | 1.6 | 4.8 | 0.03 | 0.20 | 0.20 | 89 | 1009.0 |
| 20260508235554 | 12 | 75 | 1.6 | 4.8 | 0.03 | 0.20 | 0.20 | 89 | 1008.9 |
| 20260508235454 | 12 | 30 | 1.6 | 4.8 | 0.03 | 0.20 | 0.20 | 89 | 1008.9 |
| 20260508235358 | 12 | 349 | 1.6 | 4.8 | 0.03 | 0.20 | 0.20 | 89 | 1008.9 |
| 20260508235254 | 12 | 65 | 1.6 | 4.8 | 0.03 | 0.20 | 0.20 | 89 | 1008.9 |
| 20260508235159 | 12 | 20 | 1.6 | 4.8 | 0.03 | 0.20 | 0.20 | 89 | 1008.9 |
| 20260508235055 | 12 | 20 | 1.6 | 4.8 | 0.03 | 0.20 | 0.20 | 89 | 1008.9 |
| 20260508234955 | 12 | 317 | 1.6 | 6.4 | 0.03 | 0.20 | 0.20 | 89 | 1009.0 |
| 20260508234854 | 12 | 70 | 1.6 | 6.4 | 0.03 | 0.20 | 0.20 | 89 | 1008.9 |
| 20260508234753 | 12 | 103 | 1.6 | 6.4 | 0.03 | 0.20 | 0.20 | 89 | 1009.0 |
| 20260508234654 | 12 | 347 | 1.6 | 9.7 | 0.03 | 0.20 | 0.20 | 89 | 1009.0 |
| 20260508234552 | 12 | 58 | 3.2 | 9.7 | 0.03 | 0.20 | 0.20 | 90 | 1008.9 |
| 20260508234454 | 12 | 36 | 3.2 | 9.7 | 0.03 | 0.20 | 0.20 | 89 | 1008.9 |
| 20260508234355 | 12 | 346 | 3.2 | 9.7 | 0.03 | 0.20 | 0.20 | 90 | 1008.9 |
| 20260508234253 | 12 | 68 | 3.2 | 9.7 | 0.05 | 0.20 | 0.20 | 90 | 1008.9 |
| 20260508234154 | 12 | 34 | 3.2 | 9.7 | 0.05 | 0.20 | 0.20 | 90 | 1008.9 |
| 20260508234057 | 12 | 97 | 1.6 | 9.7 | 0.05 | 0.20 | 0.20 | 90 | 1008.9 |
| 20260508233954 | 12 | 50 | 1.6 | 9.7 | 0.05 | 0.20 | 0.20 | 90 | 1008.9 |
| 20260508233853 | 12 | 317 | 1.6 | 9.7 | 0.03 | 0.18 | 0.18 | 90 | 1008.9 |
| 20260508233755 | 12 | 83 | 1.6 | 9.7 | 0.03 | 0.18 | 0.18 | 90 | 1008.9 |
| 20260508233654 | 12 | 4 | 1.6 | 8.0 | 0.03 | 0.18 | 0.18 | 90 | 1008.9 |
| 20260508233553 | 12 | 16 | 1.6 | 4.8 | 0.03 | 0.18 | 0.18 | 90 | 1009.0 |
| 20260508233455 | 12 | 14 | 1.6 | 6.4 | 0.03 | 0.18 | 0.18 | 90 | 1008.9 |
| 20260508233402 | 12 | 353 | 1.6 | 6.4 | 0.05 | 0.18 | 0.18 | 89 | 1008.9 |
| 20260508233255 | 12 | 24 | 1.6 | 6.4 | 0.05 | 0.18 | 0.18 | 89 | 1009.0 |
| 20260508233152 | 12 | 32 | 1.6 | 6.4 | 0.05 | 0.18 | 0.18 | 90 | 1008.9 |
| 20260508233056 | 12 | 14 | 1.6 | 6.4 | 0.05 | 0.18 | 0.18 | 90 | 1008.9 |
| 20260508232949 | 12 | 41 | 1.6 | 6.4 | 0.05 | 0.18 | 0.18 | 90 | 1008.9 |
| 20260508232855 | 12 | 359 | 1.6 | 6.4 | 0.08 | 0.18 | 0.18 | 90 | 1008.9 |
| 20260508232751 | 12 | 339 | 1.6 | 6.4 | 0.08 | 0.18 | 0.18 | 90 | 1008.9 |
| 20260508232651 | 12 | 8 | 1.6 | 6.4 | 0.08 | 0.18 | 0.18 | 90 | 1008.9 |
| 20260508232550 | 12 | 73 | 1.6 | 6.4 | 0.08 | 0.18 | 0.18 | 90 | 1008.9 |
| 20260508232451 | 12 | 3 | 1.6 | 6.4 | 0.08 | 0.18 | 0.18 | 90 | 1008.9 |
| 20260508232350 | 12 | 357 | 1.6 | 6.4 | 0.08 | 0.18 | 0.18 | 90 | 1008.8 |
| 20260508232249 | 12 | 343 | 3.2 | 6.4 | 0.08 | 0.18 | 0.18 | 90 | 1008.8 |
| 20260508232150 | 12 | 349 | 3.2 | 6.4 | 0.08 | 0.18 | 0.18 | 90 | 1008.8 |
| 20260508232051 | 12 | 351 | 1.6 | 6.4 | 0.10 | 0.18 | 0.18 | 90 | 1008.8 |
| 20260508231951 | 12 | 342 | 1.6 | 6.4 | 0.10 | 0.18 | 0.18 | 90 | 1008.8 |
| 20260508231850 | 12 | 345 | 1.6 | 6.4 | 0.10 | 0.18 | 0.18 | 90 | 1008.8 |
| 20260508231749 | 12 | 338 | 1.6 | 6.4 | 0.13 | 0.18 | 0.18 | 90 | 1008.8 |
| 20260508231654 | 12 | 338 | 1.6 | 6.4 | 0.13 | 0.18 | 0.18 | 90 | 1008.8 |
| 20260508231550 | 12 | 341 | 1.6 | 6.4 | 0.13 | 0.18 | 0.18 | 90 | 1008.8 |
| 20260508231451 | 12 | 290 | 1.6 | 6.4 | 0.13 | 0.18 | 0.18 | 90 | 1008.8 |
| 20260508231349 | 12 | 12 | 1.6 | 6.4 | 0.13 | 0.18 | 0.18 | 90 | 1008.8 |
| 20260508231252 | 12 | 358 | 1.6 | 6.4 | 0.13 | 0.18 | 0.18 | 90 | 1008.8 |
| 20260508231153 | 12 | 1 | 1.6 | 6.4 | 0.13 | 0.18 | 0.18 | 90 | 1008.8 |
| 20260508231049 | 12 | 342 | 1.6 | 6.4 | 0.13 | 0.18 | 0.18 | 90 | 1008.8 |
| 20260508230948 | 12 | 345 | 1.6 | 6.4 | 0.13 | 0.18 | 0.18 | 89 | 1008.8 |
| 20260508230849 | 12 | 345 | 1.6 | 6.4 | 0.15 | 0.18 | 0.18 | 89 | 1008.8 |
| 20260508230750 | 12 | 343 | 1.6 | 6.4 | 0.15 | 0.18 | 0.18 | 89 | 1008.8 |
| 20260508230650 | 12 | 335 | 1.6 | 4.8 | 0.15 | 0.18 | 0.18 | 89 | 1008.8 |
| 20260508230551 | 12 | 337 | 1.6 | 4.8 | 0.15 | 0.18 | 0.18 | 89 | 1008.7 |
| 20260508230451 | 12 | 339 | 1.6 | 4.8 | 0.15 | 0.18 | 0.18 | 89 | 1008.7 |
| 20260508230350 | 12 | 331 | 1.6 | 4.8 | 0.15 | 0.18 | 0.18 | 89 | 1008.7 |
| 20260508230249 | 12 | 333 | 1.6 | 4.8 | 0.15 | 0.18 | 0.18 | 89 | 1008.7 |
| 20260508230148 | 12 | 336 | 1.6 | 4.8 | 0.15 | 0.18 | 0.18 | 89 | 1008.8 |
| 20260508230050 | 12 | 335 | 1.6 | 4.8 | 0.15 | 0.18 | 0.18 | 89 | 1008.8 |
| 20260508225948 | 12 | 335 | 1.6 | 4.8 | 0.15 | 0.18 | 0.18 | 89 | 1008.8 |
| 20260508225849 | 12 | 335 | 1.6 | 4.8 | 0.15 | 0.18 | 0.18 | 89 | 1008.8 |
| 20260508225752 | 12 | 335 | 1.6 | 4.8 | 0.15 | 0.18 | 0.18 | 89 | 1008.8 |
| 20260508225650 | 12 | 335 | 1.6 | 4.8 | 0.15 | 0.18 | 0.18 | 89 | 1008.8 |
| 20260508225548 | 12 | 335 | 1.6 | 4.8 | 0.18 | 0.18 | 0.18 | 89 | 1008.8 |
| 20260508225452 | 12 | 335 | 1.6 | 4.8 | 0.18 | 0.18 | 0.18 | 89 | 1008.8 |
| 20260508225350 | 12 | 335 | 1.6 | 4.8 | 0.18 | 0.18 | 0.18 | 89 | 1008.8 |
| 20260508225249 | 12 | 335 | 0.0 | 4.8 | 0.18 | 0.18 | 0.18 | 89 | 1008.9 |
| 20260508225152 | 12 | 341 | 0.0 | 4.8 | 0.18 | 0.18 | 0.18 | 89 | 1008.9 |
| 20260508225048 | 12 | 341 | 0.0 | 4.8 | 0.18 | 0.18 | 0.18 | 89 | 1009.0 |
| 20260508224948 | 12 | 347 | 0.0 | 3.2 | 0.18 | 0.18 | 0.18 | 89 | 1009.1 |
| 20260508224851 | 12 | 347 | 0.0 | 3.2 | 0.18 | 0.18 | 0.18 | 88 | 1009.1 |
| 20260508224749 | 12 | 347 | 0.0 | 3.2 | 0.18 | 0.18 | 0.18 | 88 | 1009.1 |
| 20260508224655 | 12 | 347 | 0.0 | 3.2 | 0.18 | 0.18 | 0.18 | 88 | 1009.3 |
| 20260508224547 | 12 | 20 | 0.0 | 3.2 | 0.18 | 0.18 | 0.18 | 88 | 1009.3 |
| 20260508224445 | 12 | 20 | 0.0 | 3.2 | 0.18 | 0.18 | 0.18 | 88 | 1009.3 |
| 20260508224345 | 12 | 63 | 0.0 | 3.2 | 0.15 | 0.15 | 0.18 | 88 | 1009.4 |
| 20260508224245 | 12 | 63 | 1.6 | 4.8 | 0.15 | 0.15 | 0.15 | 88 | 1009.4 |
| 20260508224145 | 12 | 63 | 1.6 | 6.4 | 0.15 | 0.15 | 0.15 | 88 | 1009.3 |
| 20260508224045 | 12 | 85 | 1.6 | 6.4 | 0.15 | 0.15 | 0.15 | 88 | 1009.3 |
| 20260508223951 | 12 | 121 | 1.6 | 6.4 | 0.15 | 0.15 | 0.15 | 88 | 1009.3 |
| 20260508223847 | 12 | 127 | 3.2 | 6.4 | 0.15 | 0.15 | 0.15 | 88 | 1009.4 |
| 20260508223746 | 12 | 133 | 3.2 | 6.4 | 0.15 | 0.15 | 0.15 | 88 | 1009.4 |
| 20260508223645 | 12 | 133 | 3.2 | 6.4 | 0.15 | 0.15 | 0.15 | 88 | 1009.4 |
| 20260508223548 | 12 | 133 | 3.2 | 6.4 | 0.15 | 0.15 | 0.15 | 87 | 1009.4 |
| 20260508223446 | 12 | 112 | 3.2 | 6.4 | 0.15 | 0.15 | 0.15 | 87 | 1009.4 |
| 20260508223343 | 12 | 99 | 4.8 | 11.3 | 0.13 | 0.13 | 0.15 | 87 | 1009.4 |
| 20260508223245 | 12 | 106 | 4.8 | 11.3 | 0.13 | 0.13 | 0.13 | 87 | 1009.4 |
| 20260508223137 | 12 | 74 | 4.8 | 12.9 | 0.13 | 0.13 | 0.13 | 87 | 1009.4 |
| 20260508223037 | 12 | 65 | 4.8 | 12.9 | 0.13 | 0.13 | 0.13 | 87 | 1009.4 |
| 20260508222936 | 12 | 124 | 4.8 | 12.9 | 0.13 | 0.13 | 0.13 | 87 | 1009.5 |
| 20260508222838 | 12 | 102 | 4.8 | 12.9 | 0.10 | 0.10 | 0.13 | 87 | 1009.5 |
| 20260508222732 | 12 | 114 | 4.8 | 12.9 | 0.10 | 0.10 | 0.10 | 87 | 1009.6 |
| 20260508222631 | 12 | 79 | 6.4 | 12.9 | 0.10 | 0.10 | 0.10 | 87 | 1009.6 |
| 20260508222530 | 12 | 103 | 6.4 | 12.9 | 0.10 | 0.10 | 0.10 | 87 | 1009.6 |
| 20260508222429 | 12 | 108 | 4.8 | 12.9 | 0.10 | 0.10 | 0.10 | 87 | 1009.6 |
| 20260508222322 | 12 | 99 | 4.8 | 12.9 | 0.10 | 0.10 | 0.10 | 86 | 1009.5 |
| 20260508222224 | 12 | 96 | 4.8 | 12.9 | 0.10 | 0.10 | 0.10 | 86 | 1009.5 |
| 20260508222123 | 12 | 95 | 6.4 | 12.9 | 0.10 | 0.10 | 0.10 | 86 | 1009.5 |
| 20260508222021 | 12 | 180 | 6.4 | 12.9 | 0.08 | 0.08 | 0.08 | 86 | 1009.5 |
| 20260508221922 | 12 | 180 | 6.4 | 12.9 | 0.08 | 0.08 | 0.08 | 86 | 1009.5 |
| 20260508221821 | 12 | 89 | 6.4 | 12.9 | 0.08 | 0.08 | 0.08 | 86 | 1009.5 |
| 20260508221719 | 13 | 95 | 6.4 | 12.9 | 0.05 | 0.05 | 0.08 | 85 | 1009.5 |
| 20260508221623 | 13 | 137 | 6.4 | 12.9 | 0.05 | 0.05 | 0.05 | 85 | 1009.5 |
| 20260508221520 | 13 | 91 | 8.0 | 12.9 | 0.05 | 0.05 | 0.05 | 85 | 1009.5 |
| 20260508221421 | 13 | 108 | 8.0 | 12.9 | 0.05 | 0.05 | 0.05 | 85 | 1009.4 |
| 20260508221320 | 13 | 180 | 8.0 | 12.9 | 0.05 | 0.05 | 0.05 | 85 | 1009.4 |
| 20260508221221 | 13 | 93 | 6.4 | 12.9 | 0.05 | 0.05 | 0.05 | 84 | 1009.1 |
| 20260508221120 | 13 | 132 | 6.4 | 16.1 | 0.05 | 0.05 | 0.05 | 84 | 1009.1 |
| 20260508221023 | 13 | 113 | 6.4 | 16.1 | 0.05 | 0.05 | 0.05 | 84 | 1009.1 |
| 20260508220920 | 13 | 110 | 6.4 | 16.1 | 0.03 | 0.03 | 0.05 | 84 | 1009.1 |
| 20260508220822 | 13 | 93 | 6.4 | 16.1 | 0.03 | 0.03 | 0.03 | 84 | 1009.1 |
| 20260508220724 | 13 | 73 | 6.4 | 16.1 | 0.03 | 0.03 | 0.03 | 84 | 1009.1 |
| 20260508220621 | 13 | 116 | 6.4 | 16.1 | 0.03 | 0.03 | 0.03 | 84 | 1009.1 |
| 20260508220521 | 13 | 92 | 4.8 | 16.1 | 0.03 | 0.03 | 0.03 | 83 | 1009.1 |
| 20260508220421 | 13 | 112 | 4.8 | 16.1 | 0.03 | 0.03 | 0.03 | 83 | 1009.1 |
| 20260508220320 | 13 | 110 | 4.8 | 16.1 | 0.03 | 0.03 | 0.03 | 83 | 1009.1 |
| 20260508220222 | 13 | 180 | 4.8 | 16.1 | 0.03 | 0.03 | 0.03 | 83 | 1009.0 |
| 20260508220121 | 13 | 180 | 4.8 | 11.3 | 0.03 | 0.03 | 0.03 | 83 | 1009.0 |
| 20260508220021 | 13 | 180 | 3.2 | 11.3 | 0.03 | 0.03 | 0.03 | 82 | 1009.0 |
| 20260508215920 | 13 | 180 | 3.2 | 11.3 | 0.03 | 0.03 | 0.03 | 82 | 1008.9 |
| 20260508215820 | 13 | 180 | 3.2 | 11.3 | 0.03 | 0.03 | 0.03 | 82 | 1008.9 |
| 20260508215720 | 13 | 180 | 4.8 | 11.3 | 0.03 | 0.03 | 0.03 | 82 | 1008.9 |
| 20260508215616 | 13 | 180 | 3.2 | 11.3 | 0.00 | 0.00 | 0.03 | 82 | 1008.9 |
| 20260508215515 | 13 | 180 | 3.2 | 11.3 | 0.00 | 0.00 | 0.00 | 82 | 1008.8 |
| 20260508215415 | 13 | 180 | 3.2 | 11.3 | 0.00 | 0.00 | 0.00 | 82 | 1008.8 |
| 20260508215315 | 14 | 180 | 4.8 | 11.3 | 0.00 | 0.00 | 0.00 | 81 | 1008.8 |
| 20260508215214 | 14 | 126 | 4.8 | 11.3 | 0.00 | 0.00 | 0.00 | 81 | 1008.7 |
| 20260508215110 | 14 | 145 | 4.8 | 11.3 | 0.00 | 0.00 | 0.00 | 81 | 1008.8 |
| 20260508215012 | 14 | 156 | 4.8 | 11.3 | 0.00 | 0.00 | 0.00 | 80 | 1008.7 |
| 20260508214909 | 14 | 133 | 4.8 | 11.3 | 0.00 | 0.00 | 0.00 | 80 | 1008.8 |
| 20260508214810 | 14 | 135 | 4.8 | 11.3 | 0.00 | 0.00 | 0.00 | 80 | 1008.7 |
| 20260508214711 | 14 | 121 | 4.8 | 11.3 | 0.00 | 0.00 | 0.00 | 80 | 1008.7 |
| 20260508214609 | 14 | 180 | 4.8 | 11.3 | 0.00 | 0.00 | 0.00 | 80 | 1008.7 |
| 20260508214510 | 14 | 114 | 4.8 | 11.3 | 0.00 | 0.00 | 0.00 | 79 | 1008.6 |
| 20260508214410 | 14 | 108 | 3.2 | 11.3 | 0.00 | 0.00 | 0.00 | 79 | 1008.6 |
| 20260508214310 | 15 | 99 | 3.2 | 11.3 | 0.00 | 0.00 | 0.00 | 79 | 1008.6 |
| 20260508214208 | 15 | 97 | 3.2 | 11.3 | 0.00 | 0.00 | 0.00 | 78 | 1008.7 |
| 20260508214108 | 15 | 124 | 3.2 | 11.3 | 0.00 | 0.00 | 0.00 | 78 | 1008.6 |
| 20260508214008 | 15 | 95 | 3.2 | 9.7 | 0.00 | 0.00 | 0.00 | 78 | 1008.7 |
| 20260508213909 | 15 | 117 | 3.2 | 8.0 | 0.00 | 0.00 | 0.00 | 78 | 1008.6 |
| 20260508213808 | 15 | 113 | 3.2 | 11.3 | 0.00 | 0.00 | 0.00 | 78 | 1008.6 |
| 20260508213708 | 15 | 180 | 3.2 | 11.3 | 0.00 | 0.00 | 0.00 | 78 | 1008.6 |
| 20260508213608 | 15 | 180 | 3.2 | 11.3 | 0.00 | 0.00 | 0.00 | 78 | 1008.6 |
| 20260508213509 | 15 | 180 | 3.2 | 11.3 | 0.00 | 0.00 | 0.00 | 78 | 1008.6 |
| 20260508213406 | 15 | 180 | 3.2 | 11.3 | 0.00 | 0.00 | 0.00 | 78 | 1008.6 |
| 20260508213312 | 15 | 180 | 4.8 | 11.3 | 0.00 | 0.00 | 0.00 | 77 | 1008.5 |
| 20260508213206 | 15 | 180 | 4.8 | 11.3 | 0.00 | 0.00 | 0.00 | 76 | 1008.6 |
| 20260508213105 | 15 | 150 | 4.8 | 11.3 | 0.00 | 0.00 | 0.00 | 75 | 1008.6 |
| 20260508213009 | 15 | 124 | 4.8 | 11.3 | 0.00 | 0.00 | 0.00 | 75 | 1008.6 |
| 20260508212904 | 15 | 126 | 3.2 | 11.3 | 0.00 | 0.00 | 0.00 | 74 | 1008.6 |
| 20260508212802 | 15 | 119 | 3.2 | 9.7 | 0.00 | 0.00 | 0.00 | 76 | 1008.6 |
| 20260508212700 | 15 | 132 | 3.2 | 8.0 | 0.00 | 0.00 | 0.00 | 75 | 1008.6 |
| 20260508212603 | 15 | 116 | 3.2 | 8.0 | 0.00 | 0.00 | 0.00 | 74 | 1008.6 |
| 20260508212501 | 15 | 125 | 1.6 | 8.0 | 0.00 | 0.00 | 0.00 | 77 | 1008.5 |
| 20260508212355 | 15 | 119 | 1.6 | 6.4 | 0.00 | 0.00 | 0.00 | 77 | 1008.5 |
| 20260508212254 | 15 | 145 | 1.6 | 6.4 | 0.00 | 0.00 | 0.00 | 77 | 1008.5 |
| 20260508212154 | 15 | 99 | 1.6 | 4.8 | 0.00 | 0.00 | 0.00 | 76 | 1008.5 |
| 20260508212055 | 15 | 106 | 1.6 | 4.8 | 0.00 | 0.00 | 0.00 | 75 | 1008.5 |
| 20260508211951 | 15 | 105 | 0.0 | 3.2 | 0.00 | 0.00 | 0.00 | 76 | 1008.5 |
| 20260508211851 | 15 | 105 | 0.0 | 3.2 | 0.00 | 0.00 | 0.00 | 75 | 1008.5 |
| 20260508211749 | 15 | 180 | 0.0 | 3.2 | 0.00 | 0.00 | 0.00 | 73 | 1008.4 |
| 20260508211701 | 15 | 180 | 0.0 | 3.2 | 0.00 | 0.00 | 0.00 | 72 | 1008.5 |
| 20260508211549 | 15 | 180 | 1.6 | 4.8 | 0.00 | 0.00 | 0.00 | 71 | 1008.5 |
| 20260508211447 | 15 | 180 | 1.6 | 4.8 | 0.00 | 0.00 | 0.00 | 71 | 1008.5 |
| 20260508211347 | 15 | 180 | 1.6 | 4.8 | 0.00 | 0.00 | 0.00 | 72 | 1008.5 |
| 20260508211244 | 15 | 180 | 1.6 | 4.8 | 0.00 | 0.00 | 0.00 | 72 | 1008.5 |
| 20260508211143 | 15 | 180 | 1.6 | 4.8 | 0.00 | 0.00 | 0.00 | 72 | 1008.5 |
| 20260508211045 | 15 | 180 | 1.6 | 4.8 | 0.00 | 0.00 | 0.00 | 71 | 1008.5 |
| 20260508210940 | 15 | 180 | 0.0 | 4.8 | 0.00 | 0.00 | 0.00 | 71 | 1008.4 |
| 20260508210838 | 15 | 180 | 1.6 | 4.8 | 0.00 | 0.00 | 0.00 | 71 | 1008.5 |
| 20260508210736 | 15 | 180 | 1.6 | 12.9 | 0.00 | 0.00 | 0.00 | 69 | 1008.5 |
| 20260508210638 | 15 | 180 | 1.6 | 12.9 | 0.00 | 0.00 | 0.00 | 68 | 1008.5 |
| 20260508210535 | 15 | 180 | 1.6 | 12.9 | 0.00 | 0.00 | 0.00 | 68 | 1008.5 |
| 20260508210442 | 15 | 180 | 1.6 | 12.9 | 0.00 | 0.00 | 0.00 | 70 | 1008.6 |
| 20260508210337 | 15 | 180 | 1.6 | 12.9 | 0.00 | 0.00 | 0.00 | 68 | 1008.6 |
| 20260508210235 | 15 | 180 | 1.6 | 12.9 | 0.00 | 0.00 | 0.00 | 67 | 1008.6 |
| 20260508210132 | 15 | 180 | 1.6 | 12.9 | 0.00 | 0.00 | 0.00 | 67 | 1008.6 |
| 20260508210034 | 15 | 180 | 1.6 | 12.9 | 0.00 | 0.00 | 0.00 | 68 | 1008.6 |
| 20260508205931 | 15 | 180 | 1.6 | 12.9 | 0.00 | 0.00 | 0.00 | 67 | 1008.6 |
| 20260508205830 | 15 | 180 | 1.6 | 12.9 | 0.00 | 0.00 | 0.00 | 68 | 1008.6 |
| 20260508205729 | 15 | 180 | 1.6 | 4.8 | 0.00 | 0.00 | 0.00 | 68 | 1008.7 |
| 20260508205628 | 15 | 180 | 1.6 | 4.8 | 0.00 | 0.00 | 0.00 | 67 | 1008.7 |
| 20260508205529 | 15 | 180 | 1.6 | 3.2 | 0.00 | 0.00 | 0.00 | 66 | 1008.8 |
| 20260508205430 | 15 | 180 | 1.6 | 4.8 | 0.00 | 0.00 | 0.00 | 66 | 1008.8 |
| 20260508205330 | 15 | 180 | 1.6 | 4.8 | 0.00 | 0.00 | 0.00 | 66 | 1008.8 |
| 20260508205228 | 15 | 180 | 1.6 | 4.8 | 0.00 | 0.00 | 0.00 | 67 | 1008.8 |
| 20260508205129 | 15 | 180 | 0.0 | 4.8 | 0.00 | 0.00 | 0.00 | 67 | 1008.8 |
| 20260508205028 | 15 | 180 | 0.0 | 4.8 | 0.00 | 0.00 | 0.00 | 67 | 1008.8 |
| 20260508204928 | 16 | 180 | 1.6 | 6.4 | 0.00 | 0.00 | 0.00 | 67 | 1008.9 |
| 20260508204825 | 16 | 180 | 1.6 | 8.0 | 0.00 | 0.00 | 0.00 | 66 | 1008.9 |
| 20260508204729 | 16 | 180 | 1.6 | 8.0 | 0.00 | 0.00 | 0.00 | 67 | 1008.9 |
| 20260508204624 | 16 | 180 | 1.6 | 9.7 | 0.00 | 0.00 | 0.00 | 67 | 1008.9 |
| 20260508204525 | 16 | 180 | 1.6 | 9.7 | 0.00 | 0.00 | 0.00 | 66 | 1008.9 |
| 20260508204424 | 16 | 180 | 1.6 | 9.7 | 0.00 | 0.00 | 0.00 | 64 | 1009.0 |
| 20260508204325 | 16 | 180 | 1.6 | 9.7 | 0.00 | 0.00 | 0.00 | 64 | 1009.0 |
| 20260508204225 | 16 | 180 | 1.6 | 9.7 | 0.00 | 0.00 | 0.00 | 64 | 1009.0 |
| 20260508204130 | 16 | 180 | 3.2 | 9.7 | 0.00 | 0.00 | 0.00 | 64 | 1009.0 |
| 20260508204024 | 16 | 180 | 3.2 | 12.9 | 0.00 | 0.00 | 0.00 | 64 | 1009.0 |
| 20260508203924 | 16 | 180 | 3.2 | 17.7 | 0.00 | 0.00 | 0.00 | 65 | 1009.1 |
| 20260508203826 | 16 | 180 | 3.2 | 17.7 | 0.00 | 0.00 | 0.00 | 64 | 1009.1 |
| 20260508203722 | 16 | 180 | 4.8 | 17.7 | 0.00 | 0.00 | 0.00 | 63 | 1009.1 |
| 20260508203622 | 16 | 180 | 4.8 | 17.7 | 0.00 | 0.00 | 0.00 | 64 | 1009.1 |
| 20260508203522 | 16 | 180 | 4.8 | 17.7 | 0.00 | 0.00 | 0.00 | 64 | 1009.1 |
| 20260508203419 | 16 | 180 | 4.8 | 17.7 | 0.00 | 0.00 | 0.00 | 63 | 1009.0 |
| 20260508203321 | 16 | 180 | 4.8 | 17.7 | 0.00 | 0.00 | 0.00 | 60 | 1009.0 |
| 20260508203221 | 16 | 180 | 4.8 | 17.7 | 0.00 | 0.00 | 0.00 | 61 | 1009.0 |
| 20260508203119 | 16 | 180 | 4.8 | 17.7 | 0.00 | 0.00 | 0.00 | 61 | 1009.0 |
| 20260508203018 | 16 | 180 | 4.8 | 14.5 | 0.00 | 0.00 | 0.00 | 61 | 1009.0 |
| 20260508202917 | 16 | 180 | 3.2 | 14.5 | 0.00 | 0.00 | 0.00 | 60 | 1009.0 |
| 20260508202816 | 16 | 180 | 3.2 | 14.5 | 0.00 | 0.00 | 0.00 | 61 | 1009.1 |
| 20260508202716 | 16 | 180 | 3.2 | 14.5 | 0.00 | 0.00 | 0.00 | 62 | 1009.1 |
| 20260508202616 | 16 | 180 | 3.2 | 14.5 | 0.00 | 0.00 | 0.00 | 62 | 1009.1 |
| 20260508202516 | 16 | 180 | 3.2 | 8.0 | 0.00 | 0.00 | 0.00 | 62 | 1009.1 |
| 20260508202415 | 16 | 180 | 3.2 | 8.0 | 0.00 | 0.00 | 0.00 | 62 | 1009.1 |
| 20260508202314 | 16 | 180 | 3.2 | 8.0 | 0.00 | 0.00 | 0.00 | 62 | 1009.1 |
| 20260508202212 | 16 | 180 | 1.6 | 8.0 | 0.00 | 0.00 | 0.00 | 63 | 1009.1 |
| 20260508202115 | 16 | 180 | 1.6 | 8.0 | 0.00 | 0.00 | 0.00 | 62 | 1009.3 |
| 20260508202014 | 16 | 180 | 1.6 | 8.0 | 0.00 | 0.00 | 0.00 | 62 | 1009.3 |
| 20260508201914 | 16 | 180 | 3.2 | 8.0 | 0.00 | 0.00 | 0.00 | 62 | 1009.1 |
| 20260508201814 | 16 | 180 | 1.6 | 8.0 | 0.00 | 0.00 | 0.00 | 61 | 1009.3 |
| 20260508201713 | 16 | 180 | 1.6 | 8.0 | 0.00 | 0.00 | 0.00 | 62 | 1009.3 |
| 20260508201612 | 16 | 180 | 1.6 | 8.0 | 0.00 | 0.00 | 0.00 | 63 | 1009.4 |
| 20260508201514 | 16 | 180 | 1.6 | 8.0 | 0.00 | 0.00 | 0.00 | 62 | 1009.4 |
| 20260508201411 | 16 | 180 | 1.6 | 8.0 | 0.00 | 0.00 | 0.00 | 61 | 1009.4 |
| 20260508201312 | 16 | 180 | 1.6 | 8.0 | 0.00 | 0.00 | 0.00 | 61 | 1009.5 |
| 20260508201210 | 16 | 180 | 1.6 | 8.0 | 0.00 | 0.00 | 0.00 | 62 | 1009.5 |
| 20260508201109 | 16 | 180 | 1.6 | 8.0 | 0.00 | 0.00 | 0.00 | 61 | 1009.6 |
| 20260508201008 | 16 | 180 | 1.6 | 8.0 | 0.00 | 0.00 | 0.00 | 61 | 1009.6 |
| 20260508200908 | 16 | 180 | 1.6 | 8.0 | 0.00 | 0.00 | 0.00 | 63 | 1009.6 |
| 20260508200808 | 16 | 180 | 1.6 | 8.0 | 0.00 | 0.00 | 0.00 | 62 | 1009.6 |
| 20260508200708 | 16 | 180 | 1.6 | 8.0 | 0.00 | 0.00 | 0.00 | 62 | 1009.6 |
| 20260508200608 | 16 | 180 | 1.6 | 8.0 | 0.00 | 0.00 | 0.00 | 62 | 1009.5 |
| 20260508200508 | 16 | 180 | 1.6 | 8.0 | 0.00 | 0.00 | 0.00 | 62 | 1009.5 |
| 20260508200406 | 16 | 180 | 1.6 | 8.0 | 0.00 | 0.00 | 0.00 | 64 | 1009.5 |
| 20260508200305 | 16 | 180 | 3.2 | 8.0 | 0.00 | 0.00 | 0.00 | 63 | 1009.5 |
| 20260508200208 | 16 | 180 | 3.2 | 8.0 | 0.00 | 0.00 | 0.00 | 63 | 1009.5 |
| 20260508200107 | 16 | 180 | 3.2 | 8.0 | 0.00 | 0.00 | 0.00 | 63 | 1009.5 |
| 20260508200006 | 16 | 180 | 3.2 | 6.4 | 0.00 | 0.00 | 0.00 | 63 | 1009.5 |
| 20260508195904 | 16 | 180 | 3.2 | 8.0 | 0.00 | 0.00 | 0.00 | 62 | 1009.5 |
| 20260508195806 | 16 | 180 | 3.2 | 8.0 | 0.00 | 0.00 | 0.00 | 60 | 1009.6 |
| 20260508195704 | 16 | 180 | 3.2 | 8.0 | 0.00 | 0.00 | 0.00 | 62 | 1009.6 |
| 20260508195602 | 16 | 180 | 3.2 | 8.0 | 0.00 | 0.00 | 0.00 | 62 | 1009.6 |
| 20260508195502 | 16 | 180 | 3.2 | 8.0 | 0.00 | 0.00 | 0.00 | 62 | 1009.5 |
| 20260508195400 | 16 | 180 | 3.2 | 8.0 | 0.00 | 0.00 | 0.00 | 62 | 1009.5 |
| 20260508195305 | 16 | 180 | 3.2 | 8.0 | 0.00 | 0.00 | 0.00 | 61 | 1009.6 |
| 20260508195158 | 16 | 180 | 3.2 | 8.0 | 0.00 | 0.00 | 0.00 | 61 | 1009.6 |
| 20260508195058 | 16 | 180 | 3.2 | 11.3 | 0.00 | 0.00 | 0.00 | 60 | 1009.6 |
| 20260508194951 | 16 | 180 | 3.2 | 11.3 | 0.00 | 0.00 | 0.00 | 61 | 1009.6 |
| 20260508194853 | 16 | 180 | 3.2 | 11.3 | 0.00 | 0.00 | 0.00 | 60 | 1009.5 |
| 20260508194750 | 16 | 180 | 3.2 | 11.3 | 0.00 | 0.00 | 0.00 | 61 | 1009.6 |
| 20260508194651 | 16 | 180 | 4.8 | 11.3 | 0.00 | 0.00 | 0.00 | 60 | 1009.5 |
| 20260508194547 | 16 | 180 | 4.8 | 14.5 | 0.00 | 0.00 | 0.00 | 60 | 1009.6 |
| 20260508194448 | 16 | 180 | 4.8 | 14.5 | 0.00 | 0.00 | 0.00 | 61 | 1009.6 |
| 20260508194345 | 16 | 180 | 4.8 | 14.5 | 0.00 | 0.00 | 0.00 | 61 | 1009.5 |
| 20260508194242 | 16 | 180 | 4.8 | 14.5 | 0.00 | 0.00 | 0.00 | 60 | 1009.5 |
| 20260508194139 | 16 | 180 | 4.8 | 14.5 | 0.00 | 0.00 | 0.00 | 60 | 1009.6 |
| 20260508194040 | 16 | 180 | 4.8 | 14.5 | 0.00 | 0.00 | 0.00 | 60 | 1009.6 |
| 20260508193937 | 16 | 180 | 4.8 | 14.5 | 0.00 | 0.00 | 0.00 | 60 | 1009.7 |
| 20260508193838 | 16 | 180 | 4.8 | 14.5 | 0.00 | 0.00 | 0.00 | 59 | 1009.7 |
| 20260508193737 | 16 | 180 | 4.8 | 14.5 | 0.00 | 0.00 | 0.00 | 59 | 1009.7 |
| 20260508193636 | 16 | 180 | 4.8 | 12.9 | 0.00 | 0.00 | 0.00 | 60 | 1009.8 |
| 20260508193532 | 16 | 180 | 4.8 | 12.9 | 0.00 | 0.00 | 0.00 | 59 | 1009.8 |
| 20260508193432 | 17 | 180 | 3.2 | 12.9 | 0.00 | 0.00 | 0.00 | 60 | 1009.8 |
| 20260508193332 | 17 | 180 | 3.2 | 16.1 | 0.00 | 0.00 | 0.00 | 62 | 1009.8 |
| 20260508193233 | 17 | 180 | 3.2 | 16.1 | 0.00 | 0.00 | 0.00 | 60 | 1009.7 |
| 20260508193131 | 17 | 180 | 3.2 | 16.1 | 0.00 | 0.00 | 0.00 | 60 | 1009.8 |
| 20260508193032 | 17 | 180 | 3.2 | 16.1 | 0.00 | 0.00 | 0.00 | 61 | 1009.7 |
| 20260508192933 | 17 | 180 | 3.2 | 16.1 | 0.00 | 0.00 | 0.00 | 62 | 1009.7 |
| 20260508192833 | 17 | 180 | 3.2 | 16.1 | 0.00 | 0.00 | 0.00 | 61 | 1009.7 |
| 20260508192727 | 17 | 180 | 3.2 | 16.1 | 0.00 | 0.00 | 0.00 | 60 | 1009.7 |
| 20260508192627 | 17 | 180 | 3.2 | 16.1 | 0.00 | 0.00 | 0.00 | 61 | 1009.7 |
| 20260508192523 | 17 | 180 | 3.2 | 16.1 | 0.00 | 0.00 | 0.00 | 60 | 1009.8 |
| 20260508192423 | 17 | 180 | 3.2 | 16.1 | 0.00 | 0.00 | 0.00 | 61 | 1009.8 |
| 20260508192323 | 17 | 180 | 3.2 | 12.9 | 0.00 | 0.00 | 0.00 | 61 | 1009.8 |
| 20260508192222 | 17 | 180 | 3.2 | 12.9 | 0.00 | 0.00 | 0.00 | 60 | 1009.8 |
| 20260508192115 | 17 | 180 | 3.2 | 12.9 | 0.00 | 0.00 | 0.00 | 60 | 1009.8 |
| 20260508191917 | 17 | 180 | 3.2 | 12.9 | 0.00 | 0.00 | 0.00 | 60 | 1009.8 |
| 20260508191815 | 17 | 180 | 3.2 | 12.9 | 0.00 | 0.00 | 0.00 | 60 | 1009.8 |
| 20260508191712 | 17 | 180 | 3.2 | 12.9 | 0.00 | 0.00 | 0.00 | 59 | 1009.8 |
| 20260508191614 | 17 | 180 | 4.8 | 12.9 | 0.00 | 0.00 | 0.00 | 60 | 1009.8 |
| 20260508191512 | 17 | 180 | 4.8 | 12.9 | 0.00 | 0.00 | 0.00 | 60 | 1009.8 |
| 20260508191414 | 17 | 180 | 3.2 | 11.3 | 0.00 | 0.00 | 0.00 | 59 | 1009.8 |
| 20260508191313 | 17 | 180 | 3.2 | 11.3 | 0.00 | 0.00 | 0.00 | 60 | 1009.8 |
| 20260508191214 | 17 | 180 | 4.8 | 14.5 | 0.00 | 0.00 | 0.00 | 59 | 1009.9 |
| 20260508191114 | 17 | 180 | 4.8 | 14.5 | 0.00 | 0.00 | 0.00 | 60 | 1010.0 |
| 20260508191013 | 17 | 180 | 4.8 | 14.5 | 0.00 | 0.00 | 0.00 | 61 | 1010.0 |
| 20260508190912 | 17 | 180 | 4.8 | 14.5 | 0.00 | 0.00 | 0.00 | 60 | 1009.9 |
| 20260508190814 | 17 | 180 | 4.8 | 14.5 | 0.00 | 0.00 | 0.00 | 60 | 1010.0 |
| 20260508190707 | 17 | 180 | 4.8 | 14.5 | 0.00 | 0.00 | 0.00 | 59 | 1010.0 |
| 20260508190607 | 17 | 326 | 4.8 | 14.5 | 0.00 | 0.00 | 0.00 | 59 | 1010.0 |
| 20260508190504 | 17 | 180 | 4.8 | 14.5 | 0.00 | 0.00 | 0.00 | 58 | 1010.0 |
| 20260508190404 | 17 | 180 | 4.8 | 14.5 | 0.00 | 0.00 | 0.00 | 60 | 1010.0 |
| 20260508190303 | 17 | 73 | 4.8 | 14.5 | 0.00 | 0.00 | 0.00 | 59 | 1010.0 |
| 20260508190204 | 17 | 180 | 4.8 | 14.5 | 0.00 | 0.00 | 0.00 | 58 | 1010.0 |
| 20260508190002 | 17 | 180 | 4.8 | 14.5 | 0.00 | 0.00 | 0.00 | 58 | 1010.0 |
| 20260508185854 | 17 | 180 | 4.8 | 14.5 | 0.00 | 0.00 | 0.00 | 58 | 1009.9 |
| 20260508185753 | 17 | 180 | 4.8 | 14.5 | 0.00 | 0.00 | 0.00 | 58 | 1010.0 |
| 20260508185652 | 17 | 180 | 4.8 | 14.5 | 0.00 | 0.00 | 0.00 | 57 | 1009.9 |
| 20260508185553 | 17 | 83 | 4.8 | 20.9 | 0.00 | 0.00 | 0.00 | 59 | 1009.9 |
| 20260508185450 | 17 | 52 | 4.8 | 20.9 | 0.00 | 0.00 | 0.00 | 58 | 1009.9 |
| 20260508185350 | 17 | 10 | 4.8 | 20.9 | 0.00 | 0.00 | 0.00 | 57 | 1009.9 |
| 20260508185248 | 17 | 83 | 4.8 | 20.9 | 0.00 | 0.00 | 0.00 | 56 | 1009.9 |
| 20260508185151 | 17 | 332 | 4.8 | 20.9 | 0.00 | 0.00 | 0.00 | 57 | 1009.9 |
| 20260508185045 | 17 | 8 | 4.8 | 20.9 | 0.00 | 0.00 | 0.00 | 58 | 1009.9 |
| 20260508184944 | 17 | 60 | 6.4 | 20.9 | 0.00 | 0.00 | 0.00 | 58 | 1009.9 |
| 20260508184845 | 17 | 97 | 6.4 | 20.9 | 0.00 | 0.00 | 0.00 | 57 | 1009.9 |
| 20260508184740 | 17 | 355 | 6.4 | 20.9 | 0.00 | 0.00 | 0.00 | 57 | 1009.9 |
| 20260508184639 | 17 | 31 | 4.8 | 20.9 | 0.00 | 0.00 | 0.00 | 57 | 1010.0 |
| 20260508184539 | 17 | 160 | 4.8 | 12.9 | 0.00 | 0.00 | 0.00 | 57 | 1010.0 |
| 20260508184438 | 17 | 100 | 4.8 | 12.9 | 0.00 | 0.00 | 0.00 | 57 | 1010.0 |
| 20260508184337 | 17 | 71 | 6.4 | 12.9 | 0.00 | 0.00 | 0.00 | 57 | 1010.0 |
| 20260508184239 | 17 | 52 | 6.4 | 12.9 | 0.00 | 0.00 | 0.00 | 56 | 1010.1 |
| 20260508184137 | 17 | 355 | 6.4 | 12.9 | 0.00 | 0.00 | 0.00 | 56 | 1010.0 |
| 20260508184038 | 17 | 55 | 4.8 | 12.9 | 0.00 | 0.00 | 0.00 | 58 | 1010.1 |
| 20260508183938 | 17 | 25 | 6.4 | 12.9 | 0.00 | 0.00 | 0.00 | 57 | 1010.2 |
| 20260508183837 | 17 | 28 | 6.4 | 17.7 | 0.00 | 0.00 | 0.00 | 58 | 1010.2 |
| 20260508183737 | 17 | 33 | 6.4 | 17.7 | 0.00 | 0.00 | 0.00 | 56 | 1010.2 |
| 20260508183638 | 17 | 244 | 6.4 | 17.7 | 0.00 | 0.00 | 0.00 | 56 | 1010.2 |
| 20260508183538 | 17 | 358 | 6.4 | 17.7 | 0.00 | 0.00 | 0.00 | 58 | 1010.2 |
| 20260508183437 | 17 | 19 | 6.4 | 17.7 | 0.00 | 0.00 | 0.00 | 57 | 1010.2 |
| 20260508183340 | 17 | 66 | 6.4 | 17.7 | 0.00 | 0.00 | 0.00 | 57 | 1010.2 |
| 20260508183236 | 17 | 43 | 6.4 | 17.7 | 0.00 | 0.00 | 0.00 | 58 | 1010.2 |
| 20260508183137 | 17 | 4 | 6.4 | 17.7 | 0.00 | 0.00 | 0.00 | 59 | 1010.2 |
| 20260508183031 | 17 | 53 | 6.4 | 17.7 | 0.00 | 0.00 | 0.00 | 58 | 1010.2 |
| 20260508182932 | 17 | 36 | 6.4 | 17.7 | 0.00 | 0.00 | 0.00 | 60 | 1010.3 |
| 20260508182832 | 17 | 41 | 6.4 | 16.1 | 0.00 | 0.00 | 0.00 | 59 | 1010.2 |
| 20260508182733 | 17 | 343 | 4.8 | 16.1 | 0.00 | 0.00 | 0.00 | 57 | 1010.2 |
| 20260508182631 | 17 | 337 | 4.8 | 16.1 | 0.00 | 0.00 | 0.00 | 58 | 1010.1 |
| 20260508182530 | 17 | 62 | 4.8 | 16.1 | 0.00 | 0.00 | 0.00 | 59 | 1010.1 |
| 20260508182427 | 17 | 52 | 4.8 | 16.1 | 0.00 | 0.00 | 0.00 | 59 | 1010.1 |
| 20260508182329 | 17 | 23 | 4.8 | 17.7 | 0.00 | 0.00 | 0.00 | 60 | 1010.1 |
| 20260508182227 | 17 | 324 | 4.8 | 17.7 | 0.00 | 0.00 | 0.00 | 59 | 1010.2 |
| 20260508182127 | 17 | 355 | 4.8 | 17.7 | 0.00 | 0.00 | 0.00 | 58 | 1010.1 |
| 20260508182022 | 17 | 97 | 4.8 | 17.7 | 0.00 | 0.00 | 0.00 | 57 | 1010.2 |
| 20260508181920 | 17 | 341 | 4.8 | 17.7 | 0.00 | 0.00 | 0.00 | 59 | 1010.2 |
| 20260508181820 | 17 | 355 | 4.8 | 17.7 | 0.00 | 0.00 | 0.00 | 58 | 1010.2 |
| 20260508181718 | 17 | 65 | 4.8 | 17.7 | 0.00 | 0.00 | 0.00 | 58 | 1010.2 |
| 20260508181616 | 17 | 353 | 4.8 | 17.7 | 0.00 | 0.00 | 0.00 | 60 | 1010.2 |
| 20260508181516 | 17 | 30 | 6.4 | 17.7 | 0.00 | 0.00 | 0.00 | 59 | 1010.1 |
| 20260508181413 | 17 | 349 | 6.4 | 14.5 | 0.00 | 0.00 | 0.00 | 56 | 1010.1 |
| 20260508181315 | 17 | 233 | 6.4 | 14.5 | 0.00 | 0.00 | 0.00 | 56 | 1010.2 |
| 20260508181213 | 17 | 62 | 6.4 | 14.5 | 0.00 | 0.00 | 0.00 | 56 | 1010.1 |
| 20260508181112 | 17 | 72 | 6.4 | 14.5 | 0.00 | 0.00 | 0.00 | 55 | 1010.2 |
| 20260508181014 | 17 | 77 | 6.4 | 14.5 | 0.00 | 0.00 | 0.00 | 55 | 1010.0 |
| 20260508180915 | 17 | 41 | 6.4 | 12.9 | 0.00 | 0.00 | 0.00 | 57 | 1010.1 |
| 20260508180813 | 17 | 42 | 6.4 | 14.5 | 0.00 | 0.00 | 0.00 | 58 | 1010.0 |
| 20260508180713 | 17 | 89 | 4.8 | 14.5 | 0.00 | 0.00 | 0.00 | 57 | 1010.1 |
| 20260508180611 | 17 | 48 | 4.8 | 14.5 | 0.00 | 0.00 | 0.00 | 58 | 1010.1 |
| 20260508180510 | 17 | 118 | 4.8 | 14.5 | 0.00 | 0.00 | 0.00 | 58 | 1010.1 |
| 20260508180405 | 17 | 70 | 4.8 | 14.5 | 0.00 | 0.00 | 0.00 | 59 | 1010.1 |
| 20260508180306 | 17 | 359 | 4.8 | 14.5 | 0.00 | 0.00 | 0.00 | 59 | 1010.1 |
| 20260508180206 | 17 | 22 | 4.8 | 14.5 | 0.00 | 0.00 | 0.00 | 58 | 1010.2 |
| 20260508180107 | 17 | 321 | 4.8 | 14.5 | 0.00 | 0.00 | 0.00 | 59 | 1010.1 |
| 20260508180006 | 17 | 330 | 3.2 | 14.5 | 0.00 | 0.00 | 0.00 | 58 | 1010.1 |
| 20260508175905 | 17 | 116 | 3.2 | 14.5 | 0.00 | 0.00 | 0.00 | 60 | 1010.2 |
| 20260508175800 | 17 | 344 | 3.2 | 11.3 | 0.00 | 0.00 | 0.00 | 60 | 1010.2 |
| 20260508175700 | 16 | 180 | 3.2 | 11.3 | 0.00 | 0.00 | 0.00 | 60 | 1010.2 |
| 20260508175555 | 16 | 180 | 3.2 | 11.3 | 0.00 | 0.00 | 0.00 | 61 | 1010.2 |
| 20260508175454 | 16 | 180 | 3.2 | 11.3 | 0.00 | 0.00 | 0.00 | 61 | 1010.2 |
| 20260508175353 | 16 | 180 | 3.2 | 9.7 | 0.00 | 0.00 | 0.00 | 60 | 1010.2 |
| 20260508175253 | 16 | 180 | 3.2 | 9.7 | 0.00 | 0.00 | 0.00 | 61 | 1010.2 |
| 20260508175154 | 16 | 180 | 3.2 | 9.7 | 0.00 | 0.00 | 0.00 | 61 | 1010.2 |
| 20260508175054 | 16 | 180 | 4.8 | 9.7 | 0.00 | 0.00 | 0.00 | 59 | 1010.2 |
| 20260508174950 | 16 | 180 | 4.8 | 11.3 | 0.00 | 0.00 | 0.00 | 60 | 1010.2 |
| 20260508174848 | 16 | 180 | 4.8 | 11.3 | 0.00 | 0.00 | 0.00 | 61 | 1010.2 |
| 20260508174747 | 16 | 180 | 4.8 | 11.3 | 0.00 | 0.00 | 0.00 | 61 | 1010.2 |
| 20260508174647 | 16 | 180 | 4.8 | 11.3 | 0.00 | 0.00 | 0.00 | 60 | 1010.3 |
| 20260508174543 | 16 | 180 | 4.8 | 16.1 | 0.00 | 0.00 | 0.00 | 60 | 1010.2 |
| 20260508174443 | 16 | 180 | 6.4 | 16.1 | 0.00 | 0.00 | 0.00 | 59 | 1010.2 |
| 20260508174345 | 16 | 180 | 6.4 | 16.1 | 0.00 | 0.00 | 0.00 | 59 | 1010.2 |
| 20260508174245 | 16 | 180 | 6.4 | 16.1 | 0.00 | 0.00 | 0.00 | 59 | 1010.3 |
| 20260508174138 | 16 | 180 | 6.4 | 16.1 | 0.00 | 0.00 | 0.00 | 57 | 1010.3 |
| 20260508174039 | 16 | 180 | 6.4 | 16.1 | 0.00 | 0.00 | 0.00 | 58 | 1010.4 |
| 20260508173935 | 16 | 318 | 6.4 | 16.1 | 0.00 | 0.00 | 0.00 | 58 | 1010.4 |
| 20260508173836 | 16 | 180 | 6.4 | 16.1 | 0.00 | 0.00 | 0.00 | 60 | 1010.4 |
| 20260508173732 | 16 | 180 | 6.4 | 16.1 | 0.00 | 0.00 | 0.00 | 58 | 1010.4 |
| 20260508173631 | 16 | 180 | 4.8 | 14.5 | 0.00 | 0.00 | 0.00 | 59 | 1010.5 |
| 20260508173531 | 16 | 180 | 4.8 | 12.9 | 0.00 | 0.00 | 0.00 | 59 | 1010.5 |
| 20260508173433 | 16 | 180 | 4.8 | 12.9 | 0.00 | 0.00 | 0.00 | 59 | 1010.5 |
| 20260508173331 | 16 | 66 | 4.8 | 12.9 | 0.00 | 0.00 | 0.00 | 60 | 1010.5 |
| 20260508173231 | 17 | 358 | 4.8 | 12.9 | 0.00 | 0.00 | 0.00 | 60 | 1010.6 |
| 20260508173132 | 17 | 8 | 4.8 | 12.9 | 0.00 | 0.00 | 0.00 | 59 | 1010.6 |
| 20260508173039 | 17 | 224 | 4.8 | 12.9 | 0.00 | 0.00 | 0.00 | 60 | 1010.7 |
| 20260508172929 | 17 | 16 | 3.2 | 12.9 | 0.00 | 0.00 | 0.00 | 60 | 1010.7 |
| 20260508172831 | 17 | 345 | 3.2 | 12.9 | 0.00 | 0.00 | 0.00 | 59 | 1010.7 |
| 20260508172727 | 17 | 85 | 3.2 | 12.9 | 0.00 | 0.00 | 0.00 | 61 | 1010.7 |
| 20260508172629 | 17 | 10 | 4.8 | 19.3 | 0.00 | 0.00 | 0.00 | 60 | 1010.8 |
| 20260508172522 | 17 | 84 | 4.8 | 19.3 | 0.00 | 0.00 | 0.00 | 61 | 1010.8 |
| 20260508172422 | 16 | 13 | 4.8 | 19.3 | 0.00 | 0.00 | 0.00 | 61 | 1010.7 |
| 20260508172322 | 16 | 0 | 3.2 | 19.3 | 0.00 | 0.00 | 0.00 | 61 | 1010.8 |
| 20260508172223 | 16 | 52 | 4.8 | 19.3 | 0.00 | 0.00 | 0.00 | 62 | 1010.8 |
| 20260508172123 | 16 | 322 | 3.2 | 19.3 | 0.00 | 0.00 | 0.00 | 60 | 1010.7 |
| 20260508172020 | 16 | 44 | 3.2 | 19.3 | 0.00 | 0.00 | 0.00 | 59 | 1010.7 |
| 20260508171921 | 16 | 110 | 3.2 | 19.3 | 0.00 | 0.00 | 0.00 | 60 | 1010.8 |
| 20260508171820 | 16 | 37 | 4.8 | 19.3 | 0.00 | 0.00 | 0.00 | 57 | 1010.8 |
| 20260508171716 | 16 | 62 | 3.2 | 19.3 | 0.00 | 0.00 | 0.00 | 57 | 1010.8 |
| 20260508171620 | 17 | 43 | 3.2 | 12.9 | 0.00 | 0.00 | 0.00 | 57 | 1010.9 |
| 20260508171518 | 17 | 49 | 3.2 | 12.9 | 0.00 | 0.00 | 0.00 | 58 | 1010.9 |
| 20260508171418 | 17 | 87 | 3.2 | 12.9 | 0.00 | 0.00 | 0.00 | 58 | 1011.0 |
| 20260508171313 | 17 | 85 | 3.2 | 12.9 | 0.00 | 0.00 | 0.00 | 58 | 1010.9 |
| 20260508171214 | 17 | 13 | 3.2 | 12.9 | 0.00 | 0.00 | 0.00 | 61 | 1011.0 |
| 20260508171113 | 16 | 18 | 4.8 | 12.9 | 0.00 | 0.00 | 0.00 | 61 | 1011.0 |
| 20260508171014 | 16 | 62 | 4.8 | 12.9 | 0.00 | 0.00 | 0.00 | 62 | 1011.0 |
| 20260508170907 | 16 | 25 | 4.8 | 12.9 | 0.00 | 0.00 | 0.00 | 59 | 1011.0 |
| 20260508170809 | 16 | 62 | 4.8 | 12.9 | 0.00 | 0.00 | 0.00 | 59 | 1011.0 |
| 20260508170708 | 16 | 180 | 4.8 | 12.9 | 0.00 | 0.00 | 0.00 | 59 | 1011.0 |
| 20260508170607 | 16 | 180 | 3.2 | 12.9 | 0.00 | 0.00 | 0.00 | 59 | 1011.0 |
| 20260508170509 | 16 | 180 | 4.8 | 12.9 | 0.00 | 0.00 | 0.00 | 59 | 1011.1 |
| 20260508170407 | 16 | 180 | 4.8 | 12.9 | 0.00 | 0.00 | 0.00 | 60 | 1011.1 |
| 20260508170305 | 16 | 180 | 4.8 | 12.9 | 0.00 | 0.00 | 0.00 | 60 | 1011.1 |
| 20260508170207 | 16 | 180 | 4.8 | 16.1 | 0.00 | 0.00 | 0.00 | 58 | 1011.2 |
| 20260508170105 | 16 | 180 | 4.8 | 16.1 | 0.00 | 0.00 | 0.00 | 61 | 1011.2 |
| 20260508170006 | 16 | 180 | 4.8 | 16.1 | 0.00 | 0.00 | 0.00 | 60 | 1011.2 |
| 20260508165906 | 16 | 180 | 4.8 | 17.7 | 0.00 | 0.00 | 0.00 | 59 | 1011.2 |
| 20260508165806 | 16 | 180 | 4.8 | 17.7 | 0.00 | 0.00 | 0.00 | 58 | 1011.3 |
| 20260508165707 | 16 | 180 | 4.8 | 17.7 | 0.00 | 0.00 | 0.00 | 58 | 1011.3 |
| 20260508165607 | 16 | 180 | 3.2 | 17.7 | 0.00 | 0.00 | 0.00 | 59 | 1011.3 |
| 20260508165507 | 16 | 180 | 3.2 | 17.7 | 0.00 | 0.00 | 0.00 | 59 | 1011.3 |
| 20260508165406 | 16 | 180 | 3.2 | 17.7 | 0.00 | 0.00 | 0.00 | 59 | 1011.3 |
| 20260508165307 | 16 | 180 | 3.2 | 17.7 | 0.00 | 0.00 | 0.00 | 59 | 1011.3 |
| 20260508165203 | 16 | 180 | 3.2 | 17.7 | 0.00 | 0.00 | 0.00 | 58 | 1011.3 |
| 20260508165104 | 16 | 180 | 3.2 | 17.7 | 0.00 | 0.00 | 0.00 | 58 | 1011.3 |
| 20260508164957 | 16 | 180 | 3.2 | 17.7 | 0.00 | 0.00 | 0.00 | 60 | 1011.3 |
| 20260508164857 | 16 | 180 | 3.2 | 9.7 | 0.00 | 0.00 | 0.00 | 58 | 1011.4 |
| 20260508164757 | 16 | 180 | 3.2 | 9.7 | 0.00 | 0.00 | 0.00 | 59 | 1011.4 |
| 20260508164657 | 16 | 180 | 3.2 | 16.1 | 0.00 | 0.00 | 0.00 | 59 | 1011.5 |
| 20260508164554 | 16 | 180 | 3.2 | 16.1 | 0.00 | 0.00 | 0.00 | 59 | 1011.4 |
| 20260508164501 | 16 | 180 | 4.8 | 16.1 | 0.00 | 0.00 | 0.00 | 58 | 1011.4 |
| 20260508164352 | 16 | 180 | 4.8 | 17.7 | 0.00 | 0.00 | 0.00 | 58 | 1011.5 |
| 20260508164252 | 16 | 180 | 4.8 | 17.7 | 0.00 | 0.00 | 0.00 | 58 | 1011.5 |
| 20260508164150 | 16 | 180 | 4.8 | 17.7 | 0.00 | 0.00 | 0.00 | 58 | 1011.5 |
| 20260508164050 | 16 | 180 | 4.8 | 17.7 | 0.00 | 0.00 | 0.00 | 57 | 1011.5 |
| 20260508163949 | 16 | 180 | 4.8 | 17.7 | 0.00 | 0.00 | 0.00 | 58 | 1011.5 |
| 20260508163851 | 16 | 180 | 4.8 | 17.7 | 0.00 | 0.00 | 0.00 | 59 | 1011.5 |
| 20260508163746 | 16 | 180 | 4.8 | 17.7 | 0.00 | 0.00 | 0.00 | 60 | 1011.5 |
| 20260508163649 | 16 | 180 | 4.8 | 17.7 | 0.00 | 0.00 | 0.00 | 58 | 1011.6 |
| 20260508163543 | 16 | 180 | 4.8 | 17.7 | 0.00 | 0.00 | 0.00 | 57 | 1011.6 |
| 20260508163445 | 16 | 180 | 4.8 | 17.7 | 0.00 | 0.00 | 0.00 | 57 | 1011.6 |
| 20260508163341 | 16 | 180 | 4.8 | 12.9 | 0.00 | 0.00 | 0.00 | 58 | 1011.6 |
| 20260508163240 | 16 | 337 | 4.8 | 12.9 | 0.00 | 0.00 | 0.00 | 58 | 1011.7 |
| 20260508163138 | 16 | 180 | 4.8 | 12.9 | 0.00 | 0.00 | 0.00 | 57 | 1011.7 |
| 20260508163039 | 16 | 180 | 4.8 | 12.9 | 0.00 | 0.00 | 0.00 | 58 | 1011.7 |
| 20260508162934 | 16 | 180 | 4.8 | 14.5 | 0.00 | 0.00 | 0.00 | 58 | 1011.8 |
| 20260508162836 | 16 | 180 | 4.8 | 14.5 | 0.00 | 0.00 | 0.00 | 57 | 1011.8 |
| 20260508162734 | 16 | 330 | 4.8 | 14.5 | 0.00 | 0.00 | 0.00 | 58 | 1011.8 |
| 20260508162632 | 16 | 131 | 4.8 | 14.5 | 0.00 | 0.00 | 0.00 | 60 | 1011.9 |
| 20260508162531 | 16 | 352 | 4.8 | 14.5 | 0.00 | 0.00 | 0.00 | 59 | 1011.8 |
| 20260508162433 | 16 | 23 | 4.8 | 14.5 | 0.00 | 0.00 | 0.00 | 57 | 1011.8 |
| 20260508162331 | 16 | 50 | 4.8 | 14.5 | 0.00 | 0.00 | 0.00 | 58 | 1011.8 |
| 20260508162230 | 16 | 116 | 4.8 | 14.5 | 0.00 | 0.00 | 0.00 | 57 | 1011.8 |
| 20260508162127 | 17 | 180 | 4.8 | 14.5 | 0.00 | 0.00 | 0.00 | 59 | 1011.7 |
| 20260508162028 | 17 | 341 | 4.8 | 9.7 | 0.00 | 0.00 | 0.00 | 59 | 1011.7 |
| 20260508161925 | 17 | 0 | 4.8 | 9.7 | 0.00 | 0.00 | 0.00 | 60 | 1011.7 |
| 20260508161827 | 17 | 353 | 3.2 | 9.7 | 0.00 | 0.00 | 0.00 | 57 | 1011.7 |
| 20260508161720 | 17 | 345 | 3.2 | 9.7 | 0.00 | 0.00 | 0.00 | 57 | 1011.7 |
| 20260508161620 | 17 | 33 | 3.2 | 9.7 | 0.00 | 0.00 | 0.00 | 59 | 1011.7 |
| 20260508161518 | 17 | 110 | 3.2 | 9.7 | 0.00 | 0.00 | 0.00 | 58 | 1011.7 |
| 20260508161418 | 17 | 41 | 3.2 | 9.7 | 0.00 | 0.00 | 0.00 | 58 | 1011.8 |
| 20260508161315 | 16 | 31 | 3.2 | 9.7 | 0.00 | 0.00 | 0.00 | 61 | 1011.8 |
| 20260508161217 | 16 | 339 | 3.2 | 11.3 | 0.00 | 0.00 | 0.00 | 59 | 1011.9 |
| 20260508161111 | 16 | 49 | 3.2 | 11.3 | 0.00 | 0.00 | 0.00 | 60 | 1011.9 |
| 20260508161010 | 16 | 60 | 3.2 | 11.3 | 0.00 | 0.00 | 0.00 | 59 | 1011.9 |
| 20260508160908 | 16 | 101 | 3.2 | 11.3 | 0.00 | 0.00 | 0.00 | 60 | 1011.9 |
| 20260508160809 | 16 | 81 | 3.2 | 11.3 | 0.00 | 0.00 | 0.00 | 61 | 1011.9 |
| 20260508160709 | 16 | 99 | 3.2 | 11.3 | 0.00 | 0.00 | 0.00 | 62 | 1011.9 |
| 20260508160609 | 16 | 243 | 4.8 | 11.3 | 0.00 | 0.00 | 0.00 | 60 | 1011.8 |
| 20260508160503 | 16 | 15 | 4.8 | 16.1 | 0.00 | 0.00 | 0.00 | 63 | 1011.8 |
| 20260508160404 | 16 | 355 | 4.8 | 16.1 | 0.00 | 0.00 | 0.00 | 61 | 1011.9 |
| 20260508160302 | 16 | 91 | 4.8 | 16.1 | 0.00 | 0.00 | 0.00 | 60 | 1011.8 |
| 20260508160203 | 16 | 49 | 4.8 | 16.1 | 0.00 | 0.00 | 0.00 | 60 | 1011.9 |
| 20260508160057 | 16 | 18 | 4.8 | 16.1 | 0.00 | 0.00 | 0.00 | 59 | 1012.0 |
| 20260508155957 | 16 | 47 | 6.4 | 16.1 | 0.00 | 0.00 | 0.00 | 59 | 1012.0 |
| 20260508155857 | 16 | 29 | 6.4 | 16.1 | 0.00 | 0.00 | 0.00 | 59 | 1012.0 |
| 20260508155759 | 16 | 180 | 6.4 | 16.1 | 0.00 | 0.00 | 0.00 | 59 | 1012.0 |
| 20260508155658 | 15 | 180 | 6.4 | 16.1 | 0.00 | 0.00 | 0.00 | 59 | 1012.0 |
| 20260508155557 | 15 | 180 | 4.8 | 16.1 | 0.00 | 0.00 | 0.00 | 60 | 1012.0 |
| 20260508155457 | 15 | 180 | 4.8 | 16.1 | 0.00 | 0.00 | 0.00 | 58 | 1012.1 |
| 20260508155357 | 15 | 180 | 4.8 | 16.1 | 0.00 | 0.00 | 0.00 | 59 | 1012.1 |
| 20260508155257 | 15 | 180 | 4.8 | 12.9 | 0.00 | 0.00 | 0.00 | 58 | 1012.1 |
| 20260508155159 | 15 | 180 | 4.8 | 12.9 | 0.00 | 0.00 | 0.00 | 59 | 1012.1 |
| 20260508155058 | 15 | 180 | 4.8 | 14.5 | 0.00 | 0.00 | 0.00 | 59 | 1012.1 |
| 20260508154959 | 15 | 180 | 4.8 | 14.5 | 0.00 | 0.00 | 0.00 | 58 | 1012.1 |
| 20260508154857 | 15 | 180 | 4.8 | 14.5 | 0.00 | 0.00 | 0.00 | 58 | 1012.1 |
| 20260508154757 | 16 | 180 | 6.4 | 14.5 | 0.00 | 0.00 | 0.00 | 58 | 1012.1 |
| 20260508154656 | 16 | 180 | 4.8 | 14.5 | 0.00 | 0.00 | 0.00 | 60 | 1012.1 |
| 20260508154556 | 16 | 180 | 4.8 | 14.5 | 0.00 | 0.00 | 0.00 | 59 | 1012.2 |
| 20260508154457 | 16 | 180 | 4.8 | 14.5 | 0.00 | 0.00 | 0.00 | 59 | 1012.1 |
| 20260508154353 | 16 | 180 | 6.4 | 14.5 | 0.00 | 0.00 | 0.00 | 59 | 1012.1 |
| 20260508154249 | 16 | 180 | 6.4 | 14.5 | 0.00 | 0.00 | 0.00 | 59 | 1012.1 |
| 20260508154149 | 16 | 180 | 6.4 | 16.1 | 0.00 | 0.00 | 0.00 | 59 | 1012.1 |
| 20260508154046 | 16 | 180 | 6.4 | 16.1 | 0.00 | 0.00 | 0.00 | 59 | 1012.1 |
| 20260508153946 | 16 | 15 | 6.4 | 16.1 | 0.00 | 0.00 | 0.00 | 58 | 1012.1 |
| 20260508153843 | 16 | 333 | 6.4 | 19.3 | 0.00 | 0.00 | 0.00 | 59 | 1012.1 |
| 20260508153744 | 16 | 70 | 6.4 | 19.3 | 0.00 | 0.00 | 0.00 | 59 | 1012.1 |
| 20260508153644 | 16 | 72 | 4.8 | 19.3 | 0.00 | 0.00 | 0.00 | 60 | 1012.1 |
| 20260508153542 | 16 | 85 | 4.8 | 19.3 | 0.00 | 0.00 | 0.00 | 60 | 1012.1 |
| 20260508153445 | 16 | 78 | 4.8 | 19.3 | 0.00 | 0.00 | 0.00 | 59 | 1012.1 |
| 20260508153344 | 16 | 77 | 4.8 | 19.3 | 0.00 | 0.00 | 0.00 | 60 | 1012.0 |
| 20260508153245 | 16 | 25 | 4.8 | 19.3 | 0.00 | 0.00 | 0.00 | 61 | 1012.1 |
| 20260508153145 | 16 | 48 | 4.8 | 19.3 | 0.00 | 0.00 | 0.00 | 60 | 1012.0 |
| 20260508153042 | 16 | 8 | 6.4 | 19.3 | 0.00 | 0.00 | 0.00 | 60 | 1012.1 |
| 20260508152944 | 16 | 90 | 6.4 | 19.3 | 0.00 | 0.00 | 0.00 | 61 | 1012.1 |
| 20260508152845 | 15 | 25 | 4.8 | 19.3 | 0.00 | 0.00 | 0.00 | 63 | 1012.0 |
| 20260508152743 | 15 | 28 | 4.8 | 19.3 | 0.00 | 0.00 | 0.00 | 64 | 1012.1 |
| 20260508152643 | 15 | 180 | 4.8 | 19.3 | 0.00 | 0.00 | 0.00 | 64 | 1012.0 |
| 20260508152543 | 15 | 180 | 4.8 | 19.3 | 0.00 | 0.00 | 0.00 | 63 | 1012.1 |
| 20260508152444 | 15 | 11 | 4.8 | 19.3 | 0.00 | 0.00 | 0.00 | 61 | 1012.1 |
| 20260508152344 | 15 | 180 | 4.8 | 19.3 | 0.00 | 0.00 | 0.00 | 61 | 1012.1 |
| 20260508152244 | 15 | 180 | 4.8 | 17.7 | 0.00 | 0.00 | 0.00 | 61 | 1012.1 |
| 20260508152143 | 15 | 180 | 4.8 | 17.7 | 0.00 | 0.00 | 0.00 | 61 | 1012.1 |
| 20260508152043 | 15 | 105 | 4.8 | 17.7 | 0.00 | 0.00 | 0.00 | 63 | 1012.1 |
| 20260508151943 | 15 | 180 | 4.8 | 17.7 | 0.00 | 0.00 | 0.00 | 64 | 1012.0 |
| 20260508151844 | 15 | 180 | 4.8 | 17.7 | 0.00 | 0.00 | 0.00 | 65 | 1012.1 |
| 20260508151744 | 15 | 180 | 4.8 | 17.7 | 0.00 | 0.00 | 0.00 | 63 | 1012.1 |
| 20260508151644 | 15 | 180 | 4.8 | 17.7 | 0.00 | 0.00 | 0.00 | 65 | 1012.1 |
| 20260508151545 | 15 | 180 | 4.8 | 17.7 | 0.00 | 0.00 | 0.00 | 63 | 1012.0 |
| 20260508151444 | 15 | 180 | 4.8 | 17.7 | 0.00 | 0.00 | 0.00 | 62 | 1012.0 |
| 20260508151343 | 15 | 180 | 4.8 | 17.7 | 0.00 | 0.00 | 0.00 | 63 | 1012.1 |
| 20260508151243 | 15 | 180 | 4.8 | 17.7 | 0.00 | 0.00 | 0.00 | 63 | 1012.1 |
| 20260508151144 | 15 | 180 | 4.8 | 14.5 | 0.00 | 0.00 | 0.00 | 61 | 1012.1 |
| 20260508151042 | 15 | 180 | 4.8 | 14.5 | 0.00 | 0.00 | 0.00 | 62 | 1012.2 |
| 20260508150945 | 15 | 180 | 4.8 | 14.5 | 0.00 | 0.00 | 0.00 | 63 | 1012.2 |
| 20260508150844 | 15 | 180 | 4.8 | 14.5 | 0.00 | 0.00 | 0.00 | 62 | 1012.2 |
| 20260508150749 | 15 | 180 | 4.8 | 14.5 | 0.00 | 0.00 | 0.00 | 60 | 1012.1 |
| 20260508150644 | 15 | 180 | 4.8 | 14.5 | 0.00 | 0.00 | 0.00 | 62 | 1012.2 |
| 20260508150544 | 15 | 180 | 4.8 | 14.5 | 0.00 | 0.00 | 0.00 | 62 | 1012.2 |
| 20260508150446 | 15 | 180 | 4.8 | 14.5 | 0.00 | 0.00 | 0.00 | 63 | 1012.2 |
| 20260508150343 | 14 | 180 | 4.8 | 14.5 | 0.00 | 0.00 | 0.00 | 62 | 1012.2 |
| 20260508150245 | 14 | 180 | 4.8 | 14.5 | 0.00 | 0.00 | 0.00 | 64 | 1012.2 |
| 20260508150142 | 14 | 180 | 4.8 | 12.9 | 0.00 | 0.00 | 0.00 | 63 | 1012.2 |
| 20260508150045 | 14 | 180 | 4.8 | 12.9 | 0.00 | 0.00 | 0.00 | 62 | 1012.1 |
| 20260508145944 | 14 | 180 | 4.8 | 12.9 | 0.00 | 0.00 | 0.00 | 62 | 1012.2 |
| 20260508145843 | 14 | 180 | 4.8 | 12.9 | 0.00 | 0.00 | 0.00 | 61 | 1012.1 |
| 20260508145745 | 14 | 180 | 4.8 | 16.1 | 0.00 | 0.00 | 0.00 | 61 | 1012.1 |
| 20260508145643 | 15 | 180 | 4.8 | 16.1 | 0.00 | 0.00 | 0.00 | 61 | 1012.2 |
| 20260508145542 | 15 | 180 | 4.8 | 16.1 | 0.00 | 0.00 | 0.00 | 62 | 1012.2 |
| 20260508145444 | 14 | 180 | 4.8 | 16.1 | 0.00 | 0.00 | 0.00 | 62 | 1012.1 |
| 20260508145343 | 14 | 180 | 4.8 | 16.1 | 0.00 | 0.00 | 0.00 | 64 | 1012.1 |
| 20260508145242 | 14 | 180 | 4.8 | 16.1 | 0.00 | 0.00 | 0.00 | 64 | 1012.2 |
| 20260508145142 | 14 | 180 | 4.8 | 16.1 | 0.00 | 0.00 | 0.00 | 63 | 1012.2 |
| 20260508145045 | 14 | 180 | 4.8 | 16.1 | 0.00 | 0.00 | 0.00 | 62 | 1012.1 |
| 20260508144945 | 14 | 180 | 6.4 | 16.1 | 0.00 | 0.00 | 0.00 | 61 | 1012.2 |
| 20260508144850 | 14 | 180 | 4.8 | 16.1 | 0.00 | 0.00 | 0.00 | 61 | 1012.2 |
| 20260508144744 | 14 | 180 | 6.4 | 16.1 | 0.00 | 0.00 | 0.00 | 63 | 1012.2 |
| 20260508144646 | 14 | 180 | 4.8 | 16.1 | 0.00 | 0.00 | 0.00 | 63 | 1012.2 |
| 20260508144536 | 14 | 180 | 4.8 | 16.1 | 0.00 | 0.00 | 0.00 | 62 | 1012.3 |
| 20260508144438 | 14 | 180 | 4.8 | 16.1 | 0.00 | 0.00 | 0.00 | 64 | 1012.4 |
| 20260508144338 | 14 | 180 | 4.8 | 16.1 | 0.00 | 0.00 | 0.00 | 63 | 1012.4 |
| 20260508144239 | 14 | 32 | 4.8 | 16.1 | 0.00 | 0.00 | 0.00 | 62 | 1012.4 |
| 20260508144138 | 14 | 122 | 4.8 | 16.1 | 0.00 | 0.00 | 0.00 | 62 | 1012.4 |
| 20260508144037 | 14 | 57 | 4.8 | 16.1 | 0.00 | 0.00 | 0.00 | 66 | 1012.4 |
| 20260508143939 | 14 | 25 | 4.8 | 12.9 | 0.00 | 0.00 | 0.00 | 65 | 1012.4 |
| 20260508143838 | 14 | 108 | 4.8 | 12.9 | 0.00 | 0.00 | 0.00 | 65 | 1012.4 |
| 20260508143739 | 14 | 33 | 4.8 | 12.9 | 0.00 | 0.00 | 0.00 | 63 | 1012.4 |
| 20260508143637 | 14 | 89 | 4.8 | 12.9 | 0.00 | 0.00 | 0.00 | 64 | 1012.6 |
| 20260508143538 | 14 | 41 | 4.8 | 12.9 | 0.00 | 0.00 | 0.00 | 63 | 1012.4 |
| 20260508143336 | 13 | 59 | 4.8 | 19.3 | 0.00 | 0.00 | 0.00 | 65 | 1012.4 |
| 20260508143239 | 13 | 61 | 4.8 | 19.3 | 0.00 | 0.00 | 0.00 | 65 | 1012.4 |
| 20260508143139 | 13 | 299 | 4.8 | 19.3 | 0.00 | 0.00 | 0.00 | 62 | 1012.4 |
| 20260508143040 | 13 | 322 | 4.8 | 19.3 | 0.00 | 0.00 | 0.00 | 63 | 1012.6 |
| 20260508142937 | 13 | 11 | 4.8 | 19.3 | 0.00 | 0.00 | 0.00 | 63 | 1012.6 |
| 20260508142839 | 13 | 13 | 4.8 | 19.3 | 0.00 | 0.00 | 0.00 | 63 | 1012.6 |
| 20260508142739 | 13 | 55 | 4.8 | 19.3 | 0.00 | 0.00 | 0.00 | 63 | 1012.7 |
| 20260508142637 | 13 | 180 | 4.8 | 19.3 | 0.00 | 0.00 | 0.00 | 65 | 1012.6 |
| 20260508142539 | 13 | 112 | 3.2 | 19.3 | 0.00 | 0.00 | 0.00 | 64 | 1012.6 |
| 20260508142437 | 13 | 58 | 3.2 | 14.5 | 0.00 | 0.00 | 0.00 | 64 | 1012.7 |
| 20260508142338 | 13 | 120 | 3.2 | 14.5 | 0.00 | 0.00 | 0.00 | 63 | 1012.7 |
| 20260508142238 | 13 | 89 | 3.2 | 12.9 | 0.00 | 0.00 | 0.00 | 66 | 1012.6 |
| 20260508142140 | 13 | 120 | 4.8 | 16.1 | 0.00 | 0.00 | 0.00 | 66 | 1012.6 |
| 20260508142037 | 13 | 150 | 4.8 | 16.1 | 0.00 | 0.00 | 0.00 | 66 | 1012.6 |
| 20260508141938 | 13 | 60 | 4.8 | 16.1 | 0.00 | 0.00 | 0.00 | 67 | 1012.6 |
| 20260508141837 | 13 | 101 | 4.8 | 16.1 | 0.00 | 0.00 | 0.00 | 65 | 1012.7 |
| 20260508141738 | 13 | 54 | 4.8 | 16.1 | 0.00 | 0.00 | 0.00 | 66 | 1012.7 |
| 20260508141639 | 13 | 103 | 4.8 | 16.1 | 0.00 | 0.00 | 0.00 | 67 | 1012.7 |
| 20260508141539 | 13 | 74 | 4.8 | 16.1 | 0.00 | 0.00 | 0.00 | 65 | 1012.7 |
| 20260508141438 | 13 | 63 | 4.8 | 16.1 | 0.00 | 0.00 | 0.00 | 64 | 1012.7 |
| 20260508141337 | 13 | 349 | 4.8 | 16.1 | 0.00 | 0.00 | 0.00 | 64 | 1012.7 |
| 20260508141238 | 13 | 70 | 4.8 | 16.1 | 0.00 | 0.00 | 0.00 | 64 | 1012.8 |
| 20260508141139 | 13 | 43 | 4.8 | 12.9 | 0.00 | 0.00 | 0.00 | 66 | 1012.8 |
| 20260508141037 | 13 | 83 | 3.2 | 12.9 | 0.00 | 0.00 | 0.00 | 66 | 1012.7 |
| 20260508140940 | 13 | 60 | 3.2 | 12.9 | 0.00 | 0.00 | 0.00 | 66 | 1012.7 |
| 20260508140837 | 13 | 347 | 3.2 | 12.9 | 0.00 | 0.00 | 0.00 | 64 | 1012.7 |
| 20260508140740 | 13 | 35 | 3.2 | 9.7 | 0.00 | 0.00 | 0.00 | 65 | 1012.7 |
| 20260508140637 | 13 | 14 | 3.2 | 9.7 | 0.00 | 0.00 | 0.00 | 66 | 1012.6 |
| 20260508140538 | 12 | 238 | 3.2 | 12.9 | 0.00 | 0.00 | 0.00 | 67 | 1012.7 |
| 20260508140438 | 12 | 355 | 3.2 | 12.9 | 0.00 | 0.00 | 0.00 | 69 | 1012.7 |
| 20260508140338 | 12 | 350 | 3.2 | 12.9 | 0.00 | 0.00 | 0.00 | 67 | 1012.8 |
| 20260508140239 | 12 | 72 | 3.2 | 12.9 | 0.00 | 0.00 | 0.00 | 67 | 1012.7 |
| 20260508140135 | 12 | 14 | 3.2 | 12.9 | 0.00 | 0.00 | 0.00 | 66 | 1012.7 |
| 20260508140036 | 12 | 342 | 3.2 | 12.9 | 0.00 | 0.00 | 0.00 | 66 | 1012.8 |
| 20260508135933 | 12 | 5 | 3.2 | 12.9 | 0.00 | 0.00 | 0.00 | 67 | 1012.8 |
| 20260508135830 | 12 | 26 | 3.2 | 12.9 | 0.00 | 0.00 | 0.00 | 66 | 1012.9 |
| 20260508135732 | 12 | 37 | 3.2 | 12.9 | 0.00 | 0.00 | 0.00 | 67 | 1012.9 |
| 20260508135633 | 12 | 47 | 3.2 | 12.9 | 0.00 | 0.00 | 0.00 | 65 | 1012.9 |
| 20260508135529 | 12 | 116 | 3.2 | 11.3 | 0.00 | 0.00 | 0.00 | 66 | 1012.9 |
| 20260508135429 | 12 | 9 | 3.2 | 11.3 | 0.00 | 0.00 | 0.00 | 67 | 1012.9 |
| 20260508135322 | 12 | 47 | 3.2 | 11.3 | 0.00 | 0.00 | 0.00 | 67 | 1012.9 |
| 20260508135222 | 12 | 357 | 3.2 | 11.3 | 0.00 | 0.00 | 0.00 | 65 | 1012.9 |
| 20260508135021 | 12 | 307 | 3.2 | 9.7 | 0.00 | 0.00 | 0.00 | 65 | 1012.9 |
| 20260508134919 | 12 | 61 | 3.2 | 9.7 | 0.00 | 0.00 | 0.00 | 64 | 1012.9 |
| 20260508134819 | 12 | 24 | 4.8 | 11.3 | 0.00 | 0.00 | 0.00 | 64 | 1012.9 |
| 20260508134717 | 12 | 15 | 4.8 | 11.3 | 0.00 | 0.00 | 0.00 | 64 | 1012.9 |
| 20260508134616 | 12 | 85 | 4.8 | 16.1 | 0.00 | 0.00 | 0.00 | 64 | 1013.0 |
| 20260508134513 | 12 | 81 | 4.8 | 16.1 | 0.00 | 0.00 | 0.00 | 65 | 1013.0 |
| 20260508134414 | 12 | 37 | 4.8 | 16.1 | 0.00 | 0.00 | 0.00 | 65 | 1013.0 |
| 20260508134312 | 12 | 3 | 4.8 | 16.1 | 0.00 | 0.00 | 0.00 | 65 | 1013.0 |
| 20260508134210 | 12 | 11 | 4.8 | 16.1 | 0.00 | 0.00 | 0.00 | 65 | 1013.0 |
| 20260508134110 | 12 | 45 | 4.8 | 16.1 | 0.00 | 0.00 | 0.00 | 64 | 1013.1 |
| 20260508134010 | 12 | 99 | 4.8 | 16.1 | 0.00 | 0.00 | 0.00 | 66 | 1013.0 |
| 20260508133911 | 12 | 58 | 3.2 | 16.1 | 0.00 | 0.00 | 0.00 | 64 | 1013.0 |
| 20260508133810 | 11 | 84 | 3.2 | 16.1 | 0.00 | 0.00 | 0.00 | 65 | 1013.0 |
| 20260508133711 | 11 | 72 | 3.2 | 11.3 | 0.00 | 0.00 | 0.00 | 65 | 1013.0 |
| 20260508133611 | 11 | 30 | 3.2 | 11.3 | 0.00 | 0.00 | 0.00 | 65 | 1012.9 |
| 20260508133510 | 11 | 81 | 3.2 | 11.3 | 0.00 | 0.00 | 0.00 | 65 | 1012.9 |
| 20260508133410 | 11 | 45 | 3.2 | 9.7 | 0.00 | 0.00 | 0.00 | 66 | 1012.8 |
| 20260508133310 | 11 | 108 | 3.2 | 8.0 | 0.00 | 0.00 | 0.00 | 66 | 1012.9 |
| 20260508133211 | 11 | 22 | 3.2 | 8.0 | 0.00 | 0.00 | 0.00 | 65 | 1012.9 |
| 20260508133110 | 11 | 80 | 3.2 | 8.0 | 0.00 | 0.00 | 0.00 | 66 | 1012.9 |
| 20260508133010 | 11 | 55 | 3.2 | 8.0 | 0.00 | 0.00 | 0.00 | 66 | 1012.9 |
| 20260508132911 | 11 | 52 | 3.2 | 8.0 | 0.00 | 0.00 | 0.00 | 66 | 1012.9 |
| 20260508132811 | 11 | 39 | 3.2 | 9.7 | 0.00 | 0.00 | 0.00 | 66 | 1012.9 |
| 20260508132704 | 11 | 30 | 3.2 | 9.7 | 0.00 | 0.00 | 0.00 | 69 | 1012.8 |
| 20260508132602 | 11 | 9 | 3.2 | 9.7 | 0.00 | 0.00 | 0.00 | 69 | 1012.9 |
| 20260508132503 | 11 | 16 | 3.2 | 9.7 | 0.00 | 0.00 | 0.00 | 69 | 1012.9 |
| 20260508132401 | 11 | 66 | 3.2 | 9.7 | 0.00 | 0.00 | 0.00 | 69 | 1012.9 |
| 20260508132300 | 11 | 18 | 3.2 | 9.7 | 0.00 | 0.00 | 0.00 | 68 | 1012.9 |
| 20260508132200 | 11 | 349 | 3.2 | 11.3 | 0.00 | 0.00 | 0.00 | 68 | 1012.8 |
| 20260508132059 | 11 | 336 | 3.2 | 11.3 | 0.00 | 0.00 | 0.00 | 67 | 1012.8 |
| 20260508131854 | 11 | 54 | 3.2 | 11.3 | 0.00 | 0.00 | 0.00 | 70 | 1012.8 |
| 20260508131753 | 11 | 80 | 3.2 | 11.3 | 0.00 | 0.00 | 0.00 | 68 | 1012.8 |
| 20260508131653 | 11 | 54 | 3.2 | 11.3 | 0.00 | 0.00 | 0.00 | 67 | 1012.8 |
| 20260508131556 | 11 | 349 | 3.2 | 11.3 | 0.00 | 0.00 | 0.00 | 67 | 1012.8 |
| 20260508131453 | 11 | 94 | 3.2 | 11.3 | 0.00 | 0.00 | 0.00 | 68 | 1012.8 |
| 20260508131353 | 11 | 68 | 3.2 | 11.3 | 0.00 | 0.00 | 0.00 | 70 | 1012.8 |
| 20260508131254 | 11 | 334 | 3.2 | 11.3 | 0.00 | 0.00 | 0.00 | 70 | 1012.8 |
| 20260508131154 | 11 | 22 | 3.2 | 11.3 | 0.00 | 0.00 | 0.00 | 68 | 1012.8 |
| 20260508131051 | 11 | 347 | 1.6 | 8.0 | 0.00 | 0.00 | 0.00 | 70 | 1012.8 |
| 20260508130950 | 10 | 6 | 3.2 | 6.4 | 0.00 | 0.00 | 0.00 | 70 | 1012.9 |
| 20260508130849 | 10 | 48 | 3.2 | 6.4 | 0.00 | 0.00 | 0.00 | 70 | 1012.8 |
| 20260508130750 | 10 | 19 | 3.2 | 6.4 | 0.00 | 0.00 | 0.00 | 70 | 1012.8 |
| 20260508130651 | 10 | 347 | 1.6 | 6.4 | 0.00 | 0.00 | 0.00 | 71 | 1012.9 |
| 20260508130551 | 10 | 54 | 1.6 | 6.4 | 0.00 | 0.00 | 0.00 | 73 | 1012.9 |
| 20260508130449 | 10 | 3 | 1.6 | 6.4 | 0.00 | 0.00 | 0.00 | 72 | 1012.9 |
| 20260508130348 | 10 | 67 | 1.6 | 6.4 | 0.00 | 0.00 | 0.00 | 72 | 1012.9 |
| 20260508130250 | 10 | 351 | 1.6 | 6.4 | 0.00 | 0.00 | 0.00 | 72 | 1012.9 |
| 20260508130149 | 10 | 61 | 1.6 | 6.4 | 0.00 | 0.00 | 0.00 | 72 | 1012.9 |
| 20260508130049 | 10 | 81 | 1.6 | 6.4 | 0.00 | 0.00 | 0.00 | 73 | 1012.9 |
| 20260508125951 | 10 | 12 | 1.6 | 6.4 | 0.00 | 0.00 | 0.00 | 72 | 1013.0 |
| 20260508125849 | 10 | 347 | 1.6 | 6.4 | 0.00 | 0.00 | 0.00 | 72 | 1012.9 |
| 20260508125749 | 10 | 25 | 1.6 | 6.4 | 0.00 | 0.00 | 0.00 | 73 | 1013.0 |
| 20260508125651 | 10 | 25 | 1.6 | 6.4 | 0.00 | 0.00 | 0.00 | 73 | 1013.0 |
| 20260508125550 | 10 | 345 | 1.6 | 6.4 | 0.00 | 0.00 | 0.00 | 73 | 1013.0 |
| 20260508125449 | 10 | 345 | 1.6 | 6.4 | 0.00 | 0.00 | 0.00 | 73 | 1013.0 |
| 20260508125348 | 10 | 11 | 1.6 | 6.4 | 0.00 | 0.00 | 0.00 | 75 | 1013.0 |
| 20260508125245 | 10 | 2 | 1.6 | 6.4 | 0.00 | 0.00 | 0.00 | 75 | 1013.0 |
| 20260508125145 | 10 | 10 | 1.6 | 6.4 | 0.00 | 0.00 | 0.00 | 75 | 1013.0 |
| 20260508125044 | 10 | 0 | 1.6 | 6.4 | 0.00 | 0.00 | 0.00 | 74 | 1013.0 |
| 20260508124944 | 9 | 4 | 1.6 | 6.4 | 0.00 | 0.00 | 0.00 | 75 | 1013.0 |
| 20260508124839 | 9 | 358 | 1.6 | 6.4 | 0.00 | 0.00 | 0.00 | 74 | 1013.0 |
| 20260508124738 | 9 | 6 | 1.6 | 6.4 | 0.00 | 0.00 | 0.00 | 74 | 1013.0 |
| 20260508124638 | 9 | 9 | 1.6 | 6.4 | 0.00 | 0.00 | 0.00 | 74 | 1013.0 |
| 20260508124536 | 9 | 354 | 1.6 | 6.4 | 0.00 | 0.00 | 0.00 | 74 | 1013.0 |
| 20260508124435 | 9 | 350 | 1.6 | 6.4 | 0.00 | 0.00 | 0.00 | 74 | 1013.0 |
| 20260508124335 | 9 | 354 | 0.0 | 6.4 | 0.00 | 0.00 | 0.00 | 75 | 1013.1 |
| 20260508124230 | 9 | 345 | 0.0 | 3.2 | 0.00 | 0.00 | 0.00 | 75 | 1013.1 |
| 20260508124132 | 9 | 345 | 0.0 | 3.2 | 0.00 | 0.00 | 0.00 | 74 | 1013.1 |
| 20260508124025 | 9 | 345 | 0.0 | 3.2 | 0.00 | 0.00 | 0.00 | 75 | 1013.2 |
| 20260508123927 | 9 | 345 | 0.0 | 3.2 | 0.00 | 0.00 | 0.00 | 75 | 1013.2 |
| 20260508123824 | 9 | 351 | 0.0 | 3.2 | 0.00 | 0.00 | 0.00 | 75 | 1013.2 |
| 20260508123725 | 9 | 341 | 0.0 | 4.8 | 0.00 | 0.00 | 0.00 | 75 | 1013.2 |
| 20260508123621 | 9 | 341 | 0.0 | 4.8 | 0.00 | 0.00 | 0.00 | 75 | 1013.2 |
| 20260508123522 | 9 | 12 | 0.0 | 4.8 | 0.00 | 0.00 | 0.00 | 74 | 1013.2 |
| 20260508123420 | 9 | 12 | 0.0 | 4.8 | 0.00 | 0.00 | 0.00 | 75 | 1013.2 |
| 20260508123320 | 9 | 36 | 0.0 | 4.8 | 0.00 | 0.00 | 0.00 | 75 | 1013.1 |
| 20260508123213 | 9 | 57 | 0.0 | 4.8 | 0.00 | 0.00 | 0.00 | 75 | 1013.2 |
| 20260508123115 | 9 | 54 | 0.0 | 4.8 | 0.00 | 0.00 | 0.00 | 75 | 1013.2 |
| 20260508123010 | 9 | 81 | 0.0 | 4.8 | 0.00 | 0.00 | 0.00 | 75 | 1013.2 |
| 20260508122911 | 9 | 84 | 0.0 | 4.8 | 0.00 | 0.00 | 0.00 | 75 | 1013.2 |
| 20260508122812 | 9 | 81 | 0.0 | 4.8 | 0.00 | 0.00 | 0.00 | 76 | 1013.2 |
| 20260508122710 | 9 | 8 | 0.0 | 3.2 | 0.00 | 0.00 | 0.00 | 76 | 1013.1 |
| 20260508122611 | 9 | 7 | 0.0 | 3.2 | 0.00 | 0.00 | 0.00 | 76 | 1013.1 |
| 20260508122510 | 9 | 7 | 0.0 | 3.2 | 0.00 | 0.00 | 0.00 | 76 | 1013.1 |
| 20260508122412 | 9 | 7 | 0.0 | 3.2 | 0.00 | 0.00 | 0.00 | 77 | 1013.0 |
| 20260508122309 | 9 | 7 | 0.0 | 3.2 | 0.00 | 0.00 | 0.00 | 77 | 1013.0 |
| 20260508122211 | 9 | 8 | 0.0 | 3.2 | 0.00 | 0.00 | 0.00 | 76 | 1013.0 |
| 20260508122111 | 9 | 9 | 0.0 | 3.2 | 0.00 | 0.00 | 0.00 | 76 | 1013.0 |
| 20260508122007 | 9 | 17 | 0.0 | 1.6 | 0.00 | 0.00 | 0.00 | 76 | 1013.0 |
| 20260508121906 | 9 | 17 | 0.0 | 1.6 | 0.00 | 0.00 | 0.00 | 76 | 1013.0 |
| 20260508121807 | 9 | 17 | 0.0 | 1.6 | 0.00 | 0.00 | 0.00 | 76 | 1013.1 |
| 20260508121704 | 9 | 180 | 0.0 | 1.6 | 0.00 | 0.00 | 0.00 | 76 | 1013.1 |
| 20260508121600 | 9 | 16 | 0.0 | 1.6 | 0.00 | 0.00 | 0.00 | 76 | 1013.1 |
| 20260508121459 | 8 | 180 | 0.0 | 1.6 | 0.00 | 0.00 | 0.00 | 76 | 1013.1 |
| 20260508121400 | 8 | 16 | 0.0 | 1.6 | 0.00 | 0.00 | 0.00 | 76 | 1013.2 |
| 20260508121258 | 8 | 16 | 0.0 | 1.6 | 0.00 | 0.00 | 0.00 | 76 | 1013.1 |
| 20260508121159 | 8 | 16 | 0.0 | 1.6 | 0.00 | 0.00 | 0.00 | 76 | 1013.1 |
| 20260508121102 | 8 | 180 | 0.0 | 3.2 | 0.00 | 0.00 | 0.00 | 76 | 1013.1 |
| 20260508120957 | 8 | 180 | 0.0 | 3.2 | 0.00 | 0.00 | 0.00 | 76 | 1013.0 |
| 20260508120855 | 8 | 180 | 0.0 | 3.2 | 0.00 | 0.00 | 0.00 | 76 | 1013.1 |
| 20260508120755 | 8 | 180 | 0.0 | 3.2 | 0.00 | 0.00 | 0.00 | 76 | 1013.1 |
| 20260508120657 | 8 | 180 | 1.6 | 3.2 | 0.00 | 0.00 | 0.00 | 76 | 1013.1 |
| 20260508120559 | 8 | 180 | 1.6 | 4.8 | 0.00 | 0.00 | 0.00 | 76 | 1013.1 |
| 20260508120454 | 8 | 180 | 1.6 | 4.8 | 0.00 | 0.00 | 0.00 | 76 | 1013.1 |
| 20260508120352 | 8 | 180 | 1.6 | 4.8 | 0.00 | 0.00 | 0.00 | 76 | 1013.1 |
| 20260508120255 | 8 | 180 | 1.6 | 4.8 | 0.00 | 0.00 | 0.00 | 76 | 1013.0 |
| 20260508120149 | 8 | 180 | 0.0 | 4.8 | 0.00 | 0.00 | 0.00 | 76 | 1013.0 |
| 20260508120049 | 8 | 180 | 0.0 | 4.8 | 0.00 | 0.00 | 0.00 | 76 | 1013.0 |
| 20260508115949 | 8 | 180 | 0.0 | 4.8 | 0.00 | 0.00 | 0.00 | 77 | 1013.0 |
| 20260508115849 | 8 | 180 | 0.0 | 4.8 | 0.00 | 0.00 | 0.00 | 76 | 1013.0 |
| 20260508115750 | 8 | 180 | 0.0 | 4.8 | 0.00 | 0.00 | 0.00 | 77 | 1013.0 |
| 20260508115640 | 8 | 180 | 0.0 | 3.2 | 0.00 | 0.00 | 0.00 | 77 | 1013.1 |
| 20260508115546 | 8 | 180 | 0.0 | 3.2 | 0.00 | 0.00 | 0.00 | 77 | 1013.1 |
| 20260508115441 | 8 | 180 | 0.0 | 3.2 | 0.00 | 0.00 | 0.00 | 78 | 1013.0 |
| 20260508115343 | 8 | 180 | 0.0 | 3.2 | 0.00 | 0.00 | 0.00 | 78 | 1013.0 |
| 20260508115237 | 8 | 180 | 0.0 | 3.2 | 0.00 | 0.00 | 0.00 | 77 | 1013.0 |
| 20260508115138 | 8 | 180 | 0.0 | 3.2 | 0.00 | 0.00 | 0.00 | 77 | 1013.0 |
| 20260508115042 | 8 | 180 | 0.0 | 3.2 | 0.00 | 0.00 | 0.00 | 77 | 1013.0 |
| 20260508114936 | 8 | 180 | 0.0 | 3.2 | 0.00 | 0.00 | 0.00 | 78 | 1013.0 |
| 20260508114832 | 8 | 180 | 0.0 | 3.2 | 0.00 | 0.00 | 0.00 | 78 | 1013.0 |
| 20260508114734 | 8 | 180 | 0.0 | 3.2 | 0.00 | 0.00 | 0.00 | 78 | 1013.0 |
| 20260508114632 | 8 | 180 | 0.0 | 3.2 | 0.00 | 0.00 | 0.00 | 78 | 1012.9 |
| 20260508114531 | 8 | 180 | 0.0 | 1.6 | 0.00 | 0.00 | 0.00 | 78 | 1012.9 |
| 20260508114429 | 8 | 180 | 0.0 | 1.6 | 0.00 | 0.00 | 0.00 | 78 | 1012.9 |
| 20260508114334 | 8 | 180 | 0.0 | 3.2 | 0.00 | 0.00 | 0.00 | 78 | 1012.9 |
| 20260508114228 | 8 | 180 | 0.0 | 4.8 | 0.00 | 0.00 | 0.00 | 78 | 1012.9 |
| 20260508114127 | 8 | 180 | 0.0 | 4.8 | 0.00 | 0.00 | 0.00 | 77 | 1012.9 |
| 20260508114026 | 8 | 180 | 0.0 | 4.8 | 0.00 | 0.00 | 0.00 | 78 | 1012.9 |
| 20260508113925 | 8 | 180 | 1.6 | 4.8 | 0.00 | 0.00 | 0.00 | 77 | 1012.9 |
| 20260508113824 | 8 | 180 | 1.6 | 4.8 | 0.00 | 0.00 | 0.00 | 77 | 1012.9 |
| 20260508113720 | 8 | 180 | 1.6 | 4.8 | 0.00 | 0.00 | 0.00 | 77 | 1012.9 |
| 20260508113622 | 8 | 180 | 1.6 | 4.8 | 0.00 | 0.00 | 0.00 | 77 | 1012.9 |
| 20260508113518 | 8 | 180 | 1.6 | 4.8 | 0.00 | 0.00 | 0.00 | 77 | 1012.9 |
| 20260508113415 | 8 | 180 | 1.6 | 4.8 | 0.00 | 0.00 | 0.00 | 77 | 1012.9 |
| 20260508113317 | 8 | 180 | 0.0 | 4.8 | 0.00 | 0.00 | 0.00 | 77 | 1012.9 |
| 20260508113209 | 8 | 180 | 0.0 | 4.8 | 0.00 | 0.00 | 0.00 | 78 | 1012.9 |
| 20260508113109 | 8 | 180 | 0.0 | 4.8 | 0.00 | 0.00 | 0.00 | 78 | 1012.9 |
| 20260508113008 | 8 | 180 | 1.6 | 6.4 | 0.00 | 0.00 | 0.00 | 77 | 1012.9 |
| 20260508112908 | 8 | 180 | 1.6 | 6.4 | 0.00 | 0.00 | 0.00 | 77 | 1012.9 |
| 20260508112807 | 8 | 180 | 1.6 | 6.4 | 0.00 | 0.00 | 0.00 | 77 | 1012.9 |
| 20260508112705 | 8 | 180 | 1.6 | 6.4 | 0.00 | 0.00 | 0.00 | 77 | 1012.8 |
| 20260508112608 | 8 | 180 | 1.6 | 6.4 | 0.00 | 0.00 | 0.00 | 78 | 1012.8 |
| 20260508112504 | 8 | 180 | 1.6 | 6.4 | 0.00 | 0.00 | 0.00 | 77 | 1012.8 |
| 20260508112357 | 8 | 180 | 1.6 | 6.4 | 0.00 | 0.00 | 0.00 | 77 | 1012.8 |
| 20260508112257 | 8 | 180 | 1.6 | 6.4 | 0.00 | 0.00 | 0.00 | 77 | 1012.9 |
| 20260508112156 | 8 | 180 | 1.6 | 6.4 | 0.00 | 0.00 | 0.00 | 77 | 1012.9 |
| 20260508112057 | 8 | 180 | 1.6 | 6.4 | 0.00 | 0.00 | 0.00 | 77 | 1012.9 |
| 20260508111958 | 8 | 180 | 1.6 | 6.4 | 0.00 | 0.00 | 0.00 | 78 | 1012.8 |
| 20260508111854 | 8 | 180 | 1.6 | 4.8 | 0.00 | 0.00 | 0.00 | 78 | 1012.8 |
| 20260508111757 | 8 | 180 | 1.6 | 4.8 | 0.00 | 0.00 | 0.00 | 78 | 1012.8 |
| 20260508111657 | 8 | 180 | 1.6 | 4.8 | 0.00 | 0.00 | 0.00 | 78 | 1012.7 |
| 20260508111555 | 8 | 180 | 1.6 | 4.8 | 0.00 | 0.00 | 0.00 | 78 | 1012.7 |
| 20260508111452 | 8 | 180 | 1.6 | 4.8 | 0.00 | 0.00 | 0.00 | 78 | 1012.8 |
| 20260508111350 | 8 | 180 | 1.6 | 4.8 | 0.00 | 0.00 | 0.00 | 78 | 1012.8 |
| 20260508111252 | 8 | 180 | 1.6 | 4.8 | 0.00 | 0.00 | 0.00 | 78 | 1012.8 |
| 20260508111148 | 8 | 180 | 1.6 | 4.8 | 0.00 | 0.00 | 0.00 | 78 | 1012.9 |
| 20260508111046 | 8 | 180 | 1.6 | 4.8 | 0.00 | 0.00 | 0.00 | 78 | 1012.9 |
| 20260508110952 | 8 | 180 | 1.6 | 4.8 | 0.00 | 0.00 | 0.00 | 78 | 1012.8 |
| 20260508110847 | 8 | 180 | 1.6 | 6.4 | 0.00 | 0.00 | 0.00 | 78 | 1012.8 |
| 20260508110745 | 8 | 180 | 1.6 | 6.4 | 0.00 | 0.00 | 0.00 | 78 | 1012.7 |
| 20260508110647 | 8 | 180 | 1.6 | 6.4 | 0.00 | 0.00 | 0.00 | 78 | 1012.6 |
| 20260508110543 | 8 | 180 | 1.6 | 6.4 | 0.00 | 0.00 | 0.00 | 79 | 1012.6 |
| 20260508110451 | 8 | 180 | 1.6 | 6.4 | 0.00 | 0.00 | 0.00 | 79 | 1012.4 |
| 20260508110340 | 8 | 180 | 1.6 | 6.4 | 0.00 | 0.00 | 0.00 | 78 | 1012.6 |
| 20260508110245 | 8 | 180 | 1.6 | 6.4 | 0.00 | 0.00 | 0.00 | 78 | 1012.6 |
| 20260508110134 | 8 | 180 | 1.6 | 6.4 | 0.00 | 0.00 | 0.00 | 79 | 1012.7 |
| 20260508110035 | 8 | 180 | 1.6 | 6.4 | 0.00 | 0.00 | 0.00 | 79 | 1012.7 |
| 20260508105933 | 8 | 180 | 1.6 | 6.4 | 0.00 | 0.00 | 0.00 | 79 | 1012.8 |
| 20260508105833 | 8 | 180 | 1.6 | 4.8 | 0.00 | 0.00 | 0.00 | 78 | 1012.8 |
| 20260508105730 | 8 | 180 | 1.6 | 4.8 | 0.00 | 0.00 | 0.00 | 78 | 1012.7 |
| 20260508105632 | 8 | 180 | 0.0 | 3.2 | 0.00 | 0.00 | 0.00 | 78 | 1012.6 |
| 20260508105530 | 8 | 180 | 1.6 | 3.2 | 0.00 | 0.00 | 0.00 | 78 | 1012.4 |
| 20260508105429 | 8 | 180 | 1.6 | 4.8 | 0.00 | 0.00 | 0.00 | 79 | 1012.4 |
| 20260508105328 | 8 | 180 | 1.6 | 4.8 | 0.00 | 0.00 | 0.00 | 78 | 1012.4 |
| 20260508105223 | 8 | 180 | 1.6 | 4.8 | 0.00 | 0.00 | 0.00 | 78 | 1012.4 |
| 20260508105129 | 8 | 180 | 1.6 | 4.8 | 0.00 | 0.00 | 0.00 | 78 | 1012.4 |
| 20260508105021 | 8 | 180 | 1.6 | 4.8 | 0.00 | 0.00 | 0.00 | 78 | 1012.6 |
| 20260508104918 | 8 | 180 | 1.6 | 4.8 | 0.00 | 0.00 | 0.00 | 78 | 1012.6 |
| 20260508104820 | 8 | 180 | 1.6 | 4.8 | 0.00 | 0.00 | 0.00 | 78 | 1012.6 |
| 20260508104718 | 8 | 180 | 1.6 | 4.8 | 0.00 | 0.00 | 0.00 | 78 | 1012.7 |
| 20260508104617 | 8 | 180 | 0.0 | 4.8 | 0.00 | 0.00 | 0.00 | 79 | 1012.7 |
| 20260508104510 | 8 | 180 | 0.0 | 4.8 | 0.00 | 0.00 | 0.00 | 79 | 1012.6 |
| 20260508104410 | 8 | 180 | 0.0 | 3.2 | 0.00 | 0.00 | 0.00 | 78 | 1012.7 |
| 20260508104313 | 8 | 180 | 0.0 | 1.6 | 0.00 | 0.00 | 0.00 | 77 | 1012.4 |
| 20260508104210 | 8 | 180 | 0.0 | 3.2 | 0.00 | 0.00 | 0.00 | 77 | 1012.6 |
| 20260508104108 | 8 | 180 | 0.0 | 3.2 | 0.00 | 0.00 | 0.00 | 77 | 1012.4 |
| 20260508104007 | 8 | 180 | 1.6 | 3.2 | 0.00 | 0.00 | 0.00 | 77 | 1012.4 |
| 20260508103903 | 8 | 180 | 1.6 | 3.2 | 0.00 | 0.00 | 0.00 | 77 | 1012.4 |
| 20260508103803 | 8 | 180 | 1.6 | 3.2 | 0.00 | 0.00 | 0.00 | 76 | 1012.4 |
| 20260508103705 | 8 | 180 | 1.6 | 6.4 | 0.00 | 0.00 | 0.00 | 76 | 1012.4 |
| 20260508103601 | 8 | 180 | 1.6 | 6.4 | 0.00 | 0.00 | 0.00 | 76 | 1012.4 |
| 20260508103457 | 8 | 180 | 1.6 | 6.4 | 0.00 | 0.00 | 0.00 | 76 | 1012.4 |
| 20260508103358 | 8 | 180 | 1.6 | 6.4 | 0.00 | 0.00 | 0.00 | 76 | 1012.3 |
| 20260508103256 | 8 | 180 | 1.6 | 6.4 | 0.00 | 0.00 | 0.00 | 77 | 1012.4 |
| 20260508103155 | 8 | 180 | 3.2 | 6.4 | 0.00 | 0.00 | 0.00 | 78 | 1012.4 |
| 20260508103055 | 8 | 180 | 1.6 | 6.4 | 0.00 | 0.00 | 0.00 | 78 | 1012.4 |
| 20260508102952 | 8 | 180 | 1.6 | 6.4 | 0.00 | 0.00 | 0.00 | 78 | 1012.4 |
| 20260508102853 | 8 | 180 | 1.6 | 6.4 | 0.00 | 0.00 | 0.00 | 78 | 1012.4 |
| 20260508102750 | 8 | 180 | 1.6 | 6.4 | 0.00 | 0.00 | 0.00 | 78 | 1012.4 |
| 20260508102652 | 8 | 180 | 1.6 | 6.4 | 0.00 | 0.00 | 0.00 | 77 | 1012.4 |
| 20260508102547 | 8 | 180 | 1.6 | 6.4 | 0.00 | 0.00 | 0.00 | 77 | 1012.3 |
| 20260508102444 | 8 | 180 | 1.6 | 6.4 | 0.00 | 0.00 | 0.00 | 77 | 1012.3 |
| 20260508102345 | 8 | 180 | 1.6 | 6.4 | 0.00 | 0.00 | 0.00 | 76 | 1012.3 |
| 20260508102245 | 8 | 180 | 0.0 | 6.4 | 0.00 | 0.00 | 0.00 | 76 | 1012.2 |
| 20260508102140 | 8 | 180 | 0.0 | 3.2 | 0.00 | 0.00 | 0.00 | 74 | 1012.2 |
| 20260508102041 | 8 | 180 | 0.0 | 3.2 | 0.00 | 0.00 | 0.00 | 73 | 1012.1 |
| 20260508101939 | 8 | 180 | 0.0 | 1.6 | 0.00 | 0.00 | 0.00 | 73 | 1012.1 |
| 20260508101840 | 8 | 180 | 0.0 | 1.6 | 0.00 | 0.00 | 0.00 | 73 | 1012.1 |
| 20260508101739 | 8 | 180 | 0.0 | 1.6 | 0.00 | 0.00 | 0.00 | 73 | 1012.0 |
| 20260508101636 | 8 | 180 | 0.0 | 1.6 | 0.00 | 0.00 | 0.00 | 73 | 1012.1 |
| 20260508101535 | 8 | 180 | 0.0 | 1.6 | 0.00 | 0.00 | 0.00 | 73 | 1012.0 |
| 20260508101437 | 8 | 180 | 0.0 | 1.6 | 0.00 | 0.00 | 0.00 | 73 | 1012.1 |
| 20260508101332 | 8 | 180 | 0.0 | 4.8 | 0.00 | 0.00 | 0.00 | 73 | 1012.1 |
| 20260508101234 | 8 | 180 | 0.0 | 4.8 | 0.00 | 0.00 | 0.00 | 73 | 1012.1 |
| 20260508101128 | 8 | 180 | 0.0 | 4.8 | 0.00 | 0.00 | 0.00 | 73 | 1012.1 |
| 20260508101027 | 8 | 180 | 0.0 | 4.8 | 0.00 | 0.00 | 0.00 | 73 | 1012.0 |
| 20260508100925 | 8 | 180 | 0.0 | 4.8 | 0.00 | 0.00 | 0.00 | 73 | 1012.0 |
| 20260508100826 | 8 | 180 | 0.0 | 4.8 | 0.00 | 0.00 | 0.00 | 73 | 1012.0 |
| 20260508100722 | 8 | 180 | 0.0 | 4.8 | 0.00 | 0.00 | 0.00 | 73 | 1012.0 |
| 20260508100624 | 8 | 180 | 0.0 | 4.8 | 0.00 | 0.00 | 0.00 | 73 | 1012.0 |
| 20260508100520 | 8 | 180 | 0.0 | 4.8 | 0.00 | 0.00 | 0.00 | 73 | 1012.0 |
| 20260508100422 | 8 | 180 | 0.0 | 3.2 | 0.00 | 0.00 | 0.00 | 73 | 1011.9 |
| 20260508100319 | 8 | 180 | 0.0 | 3.2 | 0.00 | 0.00 | 0.00 | 73 | 1012.0 |
| 20260508100217 | 8 | 180 | 0.0 | 3.2 | 0.00 | 0.00 | 0.00 | 73 | 1012.0 |
| 20260508100111 | 8 | 180 | 0.0 | 3.2 | 0.00 | 0.00 | 0.00 | 72 | 1012.0 |
| 20260508100013 | 8 | 180 | 0.0 | 3.2 | 0.00 | 0.00 | 0.00 | 72 | 1011.9 |
| 20260508095910 | 8 | 180 | 0.0 | 3.2 | 0.00 | 0.00 | 0.00 | 72 | 1012.0 |
| 20260508095811 | 8 | 180 | 0.0 | 3.2 | 0.00 | 0.00 | 0.00 | 72 | 1012.0 |
| 20260508095709 | 8 | 180 | 0.0 | 3.2 | 0.00 | 0.00 | 0.00 | 72 | 1012.0 |
| 20260508095609 | 8 | 180 | 0.0 | 3.2 | 0.00 | 0.00 | 0.00 | 72 | 1012.0 |
| 20260508095510 | 8 | 180 | 0.0 | 3.2 | 0.00 | 0.00 | 0.00 | 72 | 1012.0 |
| 20260508095410 | 8 | 180 | 0.0 | 3.2 | 0.00 | 0.00 | 0.00 | 72 | 1012.0 |
| 20260508095309 | 8 | 180 | 0.0 | 3.2 | 0.00 | 0.00 | 0.00 | 71 | 1012.0 |
| 20260508095207 | 8 | 180 | 0.0 | 3.2 | 0.00 | 0.00 | 0.00 | 71 | 1012.0 |
| 20260508095105 | 8 | 180 | 0.0 | 3.2 | 0.00 | 0.00 | 0.00 | 71 | 1012.0 |
| 20260508095006 | 8 | 180 | 0.0 | 3.2 | 0.00 | 0.00 | 0.00 | 71 | 1012.0 |
| 20260508094904 | 8 | 180 | 0.0 | 3.2 | 0.00 | 0.00 | 0.00 | 71 | 1012.0 |
| 20260508094804 | 8 | 180 | 0.0 | 3.2 | 0.00 | 0.00 | 0.00 | 71 | 1012.0 |
| 20260508094707 | 8 | 180 | 0.0 | 3.2 | 0.00 | 0.00 | 0.00 | 71 | 1012.0 |
| 20260508094609 | 8 | 180 | 0.0 | 3.2 | 0.00 | 0.00 | 0.00 | 70 | 1012.0 |
| 20260508094505 | 8 | 180 | 0.0 | 3.2 | 0.00 | 0.00 | 0.00 | 70 | 1012.1 |
| 20260508094406 | 8 | 180 | 0.0 | 1.6 | 0.00 | 0.00 | 0.00 | 70 | 1012.1 |
| 20260508094303 | 9 | 180 | 0.0 | 1.6 | 0.00 | 0.00 | 0.00 | 70 | 1012.1 |
| 20260508094205 | 9 | 180 | 0.0 | 1.6 | 0.00 | 0.00 | 0.00 | 70 | 1012.1 |
| 20260508094103 | 9 | 180 | 0.0 | 1.6 | 0.00 | 0.00 | 0.00 | 70 | 1012.1 |
| 20260508094001 | 9 | 180 | 0.0 | 1.6 | 0.00 | 0.00 | 0.00 | 70 | 1012.1 |
| 20260508093902 | 9 | 180 | 0.0 | 3.2 | 0.00 | 0.00 | 0.00 | 69 | 1012.1 |
| 20260508093802 | 9 | 180 | 0.0 | 3.2 | 0.00 | 0.00 | 0.00 | 69 | 1012.1 |
| 20260508093700 | 9 | 180 | 0.0 | 3.2 | 0.00 | 0.00 | 0.00 | 69 | 1012.1 |
| 20260508093601 | 9 | 180 | 0.0 | 3.2 | 0.00 | 0.00 | 0.00 | 69 | 1012.1 |
| 20260508093500 | 9 | 180 | 0.0 | 3.2 | 0.00 | 0.00 | 0.00 | 69 | 1012.1 |
| 20260508093356 | 9 | 180 | 0.0 | 3.2 | 0.00 | 0.00 | 0.00 | 69 | 1012.1 |
| 20260508093301 | 9 | 180 | 0.0 | 3.2 | 0.00 | 0.00 | 0.00 | 69 | 1012.0 |
| 20260508093155 | 9 | 180 | 0.0 | 3.2 | 0.00 | 0.00 | 0.00 | 69 | 1012.1 |
| 20260508093055 | 9 | 180 | 0.0 | 3.2 | 0.00 | 0.00 | 0.00 | 68 | 1012.1 |
| 20260508092952 | 9 | 180 | 0.0 | 4.8 | 0.00 | 0.00 | 0.00 | 68 | 1012.1 |
| 20260508092854 | 9 | 180 | 1.6 | 4.8 | 0.00 | 0.00 | 0.00 | 68 | 1012.1 |
| 20260508092753 | 9 | 180 | 1.6 | 6.4 | 0.00 | 0.00 | 0.00 | 68 | 1012.2 |
| 20260508092653 | 9 | 180 | 1.6 | 6.4 | 0.00 | 0.00 | 0.00 | 68 | 1012.2 |
| 20260508092553 | 9 | 180 | 1.6 | 6.4 | 0.00 | 0.00 | 0.00 | 68 | 1012.2 |
| 20260508092454 | 9 | 180 | 1.6 | 6.4 | 0.00 | 0.00 | 0.00 | 68 | 1012.2 |
| 20260508092349 | 9 | 180 | 1.6 | 6.4 | 0.00 | 0.00 | 0.00 | 69 | 1012.2 |
| 20260508092249 | 9 | 180 | 1.6 | 6.4 | 0.00 | 0.00 | 0.00 | 68 | 1012.2 |
| 20260508092150 | 9 | 180 | 1.6 | 6.4 | 0.00 | 0.00 | 0.00 | 68 | 1012.2 |
| 20260508092050 | 9 | 180 | 1.6 | 6.4 | 0.00 | 0.00 | 0.00 | 68 | 1012.2 |
| 20260508091948 | 9 | 180 | 1.6 | 6.4 | 0.00 | 0.00 | 0.00 | 68 | 1012.2 |
| 20260508091848 | 9 | 180 | 1.6 | 6.4 | 0.00 | 0.00 | 0.00 | 68 | 1012.2 |
| 20260508091744 | 10 | 180 | 1.6 | 6.4 | 0.00 | 0.00 | 0.00 | 68 | 1012.2 |
| 20260508091645 | 10 | 180 | 1.6 | 6.4 | 0.00 | 0.00 | 0.00 | 68 | 1012.2 |
| 20260508091543 | 10 | 180 | 1.6 | 6.4 | 0.00 | 0.00 | 0.00 | 68 | 1012.2 |
| 20260508091445 | 10 | 180 | 1.6 | 6.4 | 0.00 | 0.00 | 0.00 | 68 | 1012.2 |
| 20260508091338 | 10 | 180 | 1.6 | 6.4 | 0.00 | 0.00 | 0.00 | 68 | 1012.2 |
| 20260508091238 | 10 | 180 | 1.6 | 12.9 | 0.00 | 0.00 | 0.00 | 68 | 1012.2 |
| 20260508091138 | 10 | 180 | 1.6 | 12.9 | 0.00 | 0.00 | 0.00 | 68 | 1012.1 |
| 20260508091036 | 10 | 180 | 1.6 | 12.9 | 0.00 | 0.00 | 0.00 | 68 | 1012.2 |
| 20260508090932 | 10 | 180 | 1.6 | 12.9 | 0.00 | 0.00 | 0.00 | 68 | 1012.2 |
| 20260508090833 | 10 | 180 | 1.6 | 12.9 | 0.00 | 0.00 | 0.00 | 68 | 1012.1 |
| 20260508090736 | 10 | 180 | 1.6 | 12.9 | 0.00 | 0.00 | 0.00 | 68 | 1012.1 |
| 20260508090633 | 10 | 180 | 1.6 | 12.9 | 0.00 | 0.00 | 0.00 | 68 | 1012.2 |
| 20260508090529 | 10 | 180 | 1.6 | 12.9 | 0.00 | 0.00 | 0.00 | 68 | 1012.2 |
| 20260508090427 | 10 | 180 | 1.6 | 12.9 | 0.00 | 0.00 | 0.00 | 68 | 1012.2 |
| 20260508090327 | 10 | 180 | 1.6 | 8.0 | 0.00 | 0.00 | 0.00 | 68 | 1012.2 |
| 20260508090225 | 10 | 180 | 1.6 | 4.8 | 0.00 | 0.00 | 0.00 | 67 | 1012.2 |
| 20260508090126 | 10 | 180 | 1.6 | 4.8 | 0.00 | 0.00 | 0.00 | 67 | 1012.2 |
| 20260508085919 | 10 | 180 | 1.6 | 6.4 | 0.00 | 0.00 | 0.00 | 67 | 1012.2 |
| 20260508085818 | 10 | 180 | 1.6 | 6.4 | 0.00 | 0.00 | 0.00 | 67 | 1012.2 |
| 20260508085723 | 10 | 180 | 1.6 | 6.4 | 0.00 | 0.00 | 0.00 | 67 | 1012.2 |
| 20260508085619 | 10 | 180 | 1.6 | 6.4 | 0.00 | 0.00 | 0.00 | 66 | 1012.2 |
| 20260508085520 | 10 | 180 | 1.6 | 6.4 | 0.00 | 0.00 | 0.00 | 66 | 1012.3 |
| 20260508085418 | 10 | 180 | 1.6 | 6.4 | 0.00 | 0.00 | 0.00 | 66 | 1012.3 |
| 20260508085319 | 10 | 180 | 1.6 | 6.4 | 0.00 | 0.00 | 0.00 | 66 | 1012.3 |
| 20260508085223 | 10 | 180 | 1.6 | 6.4 | 0.00 | 0.00 | 0.00 | 65 | 1012.3 |
| 20260508085125 | 10 | 180 | 1.6 | 6.4 | 0.00 | 0.00 | 0.00 | 65 | 1012.3 |
| 20260508085018 | 10 | 180 | 1.6 | 9.7 | 0.00 | 0.00 | 0.00 | 65 | 1012.2 |
| 20260508084921 | 10 | 180 | 1.6 | 16.1 | 0.00 | 0.00 | 0.00 | 65 | 1012.2 |
| 20260508084816 | 10 | 180 | 1.6 | 16.1 | 0.00 | 0.00 | 0.00 | 65 | 1012.3 |
| 20260508084714 | 10 | 180 | 1.6 | 16.1 | 0.00 | 0.00 | 0.00 | 65 | 1012.3 |
| 20260508084609 | 10 | 180 | 1.6 | 16.1 | 0.00 | 0.00 | 0.00 | 65 | 1012.3 |
| 20260508084510 | 10 | 180 | 1.6 | 16.1 | 0.00 | 0.00 | 0.00 | 65 | 1012.4 |
| 20260508084412 | 10 | 180 | 3.2 | 16.1 | 0.00 | 0.00 | 0.00 | 65 | 1012.3 |
| 20260508084304 | 10 | 180 | 3.2 | 16.1 | 0.00 | 0.00 | 0.00 | 65 | 1012.4 |
| 20260508084206 | 10 | 180 | 3.2 | 16.1 | 0.00 | 0.00 | 0.00 | 65 | 1012.4 |
| 20260508084106 | 10 | 180 | 3.2 | 16.1 | 0.00 | 0.00 | 0.00 | 65 | 1012.6 |
| 20260508084007 | 10 | 180 | 3.2 | 11.3 | 0.00 | 0.00 | 0.00 | 66 | 1012.4 |
| 20260508083901 | 10 | 180 | 3.2 | 9.7 | 0.00 | 0.00 | 0.00 | 65 | 1012.4 |
| 20260508083801 | 10 | 180 | 3.2 | 9.7 | 0.00 | 0.00 | 0.00 | 65 | 1012.6 |
| 20260508083700 | 10 | 180 | 3.2 | 11.3 | 0.00 | 0.00 | 0.00 | 65 | 1012.4 |
| 20260508083601 | 10 | 180 | 3.2 | 16.1 | 0.00 | 0.00 | 0.00 | 66 | 1012.4 |
| 20260508083500 | 10 | 180 | 3.2 | 16.1 | 0.00 | 0.00 | 0.00 | 66 | 1012.4 |
| 20260508083401 | 10 | 180 | 3.2 | 16.1 | 0.00 | 0.00 | 0.00 | 65 | 1012.4 |
| 20260508083300 | 10 | 180 | 3.2 | 16.1 | 0.00 | 0.00 | 0.00 | 65 | 1012.4 |
| 20260508083159 | 10 | 180 | 3.2 | 16.1 | 0.00 | 0.00 | 0.00 | 65 | 1012.4 |
| 20260508083059 | 10 | 180 | 3.2 | 16.1 | 0.00 | 0.00 | 0.00 | 65 | 1012.4 |
| 20260508082959 | 10 | 180 | 3.2 | 16.1 | 0.00 | 0.00 | 0.00 | 65 | 1012.4 |
| 20260508082858 | 10 | 180 | 3.2 | 16.1 | 0.00 | 0.00 | 0.00 | 65 | 1012.6 |
| 20260508082754 | 10 | 180 | 3.2 | 16.1 | 0.00 | 0.00 | 0.00 | 65 | 1012.6 |
| 20260508082657 | 10 | 180 | 1.6 | 16.1 | 0.00 | 0.00 | 0.00 | 65 | 1012.6 |
| 20260508082556 | 10 | 180 | 1.6 | 6.4 | 0.00 | 0.00 | 0.00 | 65 | 1012.6 |
| 20260508082456 | 10 | 180 | 3.2 | 6.4 | 0.00 | 0.00 | 0.00 | 65 | 1012.6 |
| 20260508082354 | 10 | 180 | 3.2 | 6.4 | 0.00 | 0.00 | 0.00 | 65 | 1012.6 |
| 20260508082255 | 10 | 180 | 3.2 | 6.4 | 0.00 | 0.00 | 0.00 | 65 | 1012.6 |
| 20260508082154 | 10 | 180 | 3.2 | 6.4 | 0.00 | 0.00 | 0.00 | 65 | 1012.6 |
| 20260508082052 | 10 | 180 | 3.2 | 6.4 | 0.00 | 0.00 | 0.00 | 65 | 1012.6 |
| 20260508081951 | 10 | 180 | 1.6 | 6.4 | 0.00 | 0.00 | 0.00 | 65 | 1012.6 |
| 20260508081850 | 10 | 180 | 1.6 | 6.4 | 0.00 | 0.00 | 0.00 | 65 | 1012.4 |
| 20260508081752 | 10 | 180 | 1.6 | 6.4 | 0.00 | 0.00 | 0.00 | 65 | 1012.4 |
| 20260508081650 | 10 | 180 | 1.6 | 6.4 | 0.00 | 0.00 | 0.00 | 65 | 1012.4 |
| 20260508081549 | 10 | 180 | 1.6 | 6.4 | 0.00 | 0.00 | 0.00 | 65 | 1012.4 |
| 20260508081449 | 10 | 180 | 1.6 | 6.4 | 0.00 | 0.00 | 0.00 | 65 | 1012.4 |
| 20260508081347 | 10 | 180 | 1.6 | 6.4 | 0.00 | 0.00 | 0.00 | 65 | 1012.4 |
| 20260508081245 | 10 | 180 | 1.6 | 6.4 | 0.00 | 0.00 | 0.00 | 65 | 1012.4 |
| 20260508081146 | 10 | 180 | 1.6 | 6.4 | 0.00 | 0.00 | 0.00 | 65 | 1012.4 |
| 20260508081044 | 10 | 180 | 1.6 | 6.4 | 0.00 | 0.00 | 0.00 | 65 | 1012.6 |
| 20260508080944 | 10 | 180 | 1.6 | 6.4 | 0.00 | 0.00 | 0.00 | 65 | 1012.4 |
| 20260508080836 | 10 | 180 | 1.6 | 6.4 | 0.00 | 0.00 | 0.00 | 65 | 1012.6 |
| 20260508080738 | 10 | 180 | 1.6 | 6.4 | 0.00 | 0.00 | 0.00 | 65 | 1012.6 |
| 20260508080639 | 10 | 180 | 1.6 | 6.4 | 0.00 | 0.00 | 0.00 | 65 | 1012.6 |
| 20260508080535 | 10 | 180 | 1.6 | 6.4 | 0.00 | 0.00 | 0.00 | 65 | 1012.6 |
| 20260508080433 | 10 | 180 | 1.6 | 6.4 | 0.00 | 0.00 | 0.00 | 65 | 1012.6 |
| 20260508080334 | 10 | 180 | 1.6 | 6.4 | 0.00 | 0.00 | 0.00 | 64 | 1012.6 |
| 20260508080232 | 10 | 180 | 1.6 | 6.4 | 0.00 | 0.00 | 0.00 | 65 | 1012.6 |
| 20260508080132 | 10 | 180 | 1.6 | 6.4 | 0.00 | 0.00 | 0.00 | 65 | 1012.6 |
| 20260508080025 | 10 | 180 | 1.6 | 6.4 | 0.00 | 0.00 | 0.00 | 65 | 1012.7 |
| 20260508075926 | 10 | 180 | 1.6 | 3.2 | 0.00 | 0.00 | 0.00 | 65 | 1012.6 |
| 20260508075823 | 10 | 180 | 1.6 | 4.8 | 0.00 | 0.00 | 0.00 | 65 | 1012.6 |
| 20260508075723 | 10 | 180 | 1.6 | 4.8 | 0.00 | 0.00 | 0.00 | 64 | 1012.6 |
| 20260508075622 | 10 | 180 | 1.6 | 6.4 | 0.00 | 0.00 | 0.00 | 65 | 1012.7 |
| 20260508075522 | 10 | 180 | 1.6 | 6.4 | 0.00 | 0.00 | 0.00 | 64 | 1012.6 |
| 20260508075419 | 10 | 180 | 1.6 | 9.7 | 0.00 | 0.00 | 0.00 | 65 | 1012.7 |
| 20260508075320 | 10 | 180 | 1.6 | 9.7 | 0.00 | 0.00 | 0.00 | 65 | 1012.6 |
| 20260508075218 | 10 | 180 | 1.6 | 9.7 | 0.00 | 0.00 | 0.00 | 64 | 1012.6 |
| 20260508075114 | 10 | 180 | 1.6 | 9.7 | 0.00 | 0.00 | 0.00 | 64 | 1012.6 |
| 20260508075014 | 10 | 180 | 1.6 | 9.7 | 0.00 | 0.00 | 0.00 | 64 | 1012.6 |
| 20260508074914 | 10 | 180 | 1.6 | 9.7 | 0.00 | 0.00 | 0.00 | 64 | 1012.6 |
| 20260508074814 | 10 | 180 | 1.6 | 9.7 | 0.00 | 0.00 | 0.00 | 65 | 1012.4 |
| 20260508074715 | 10 | 180 | 3.2 | 9.7 | 0.00 | 0.00 | 0.00 | 65 | 1012.6 |
| 20260508074616 | 10 | 180 | 3.2 | 9.7 | 0.00 | 0.00 | 0.00 | 65 | 1012.6 |
| 20260508074514 | 10 | 180 | 3.2 | 11.3 | 0.00 | 0.00 | 0.00 | 65 | 1012.6 |
| 20260508074414 | 10 | 180 | 3.2 | 11.3 | 0.00 | 0.00 | 0.00 | 64 | 1012.6 |
| 20260508074313 | 10 | 180 | 3.2 | 11.3 | 0.00 | 0.00 | 0.00 | 65 | 1012.6 |
| 20260508074219 | 10 | 180 | 3.2 | 11.3 | 0.00 | 0.00 | 0.00 | 65 | 1012.7 |
| 20260508074114 | 10 | 180 | 3.2 | 11.3 | 0.00 | 0.00 | 0.00 | 65 | 1012.6 |
| 20260508074014 | 10 | 180 | 3.2 | 11.3 | 0.00 | 0.00 | 0.00 | 65 | 1012.6 |
| 20260508073912 | 10 | 180 | 3.2 | 11.3 | 0.00 | 0.00 | 0.00 | 65 | 1012.6 |
| 20260508073810 | 10 | 180 | 3.2 | 11.3 | 0.00 | 0.00 | 0.00 | 65 | 1012.4 |
| 20260508073710 | 10 | 180 | 3.2 | 11.3 | 0.00 | 0.00 | 0.00 | 65 | 1012.4 |
| 20260508073611 | 10 | 180 | 3.2 | 11.3 | 0.00 | 0.00 | 0.00 | 65 | 1012.4 |
| 20260508073511 | 10 | 180 | 1.6 | 8.0 | 0.00 | 0.00 | 0.00 | 65 | 1012.4 |
| 20260508073410 | 10 | 180 | 3.2 | 8.0 | 0.00 | 0.00 | 0.00 | 65 | 1012.4 |
| 20260508073312 | 10 | 180 | 3.2 | 8.0 | 0.00 | 0.00 | 0.00 | 65 | 1012.4 |
| 20260508073208 | 10 | 180 | 1.6 | 8.0 | 0.00 | 0.00 | 0.00 | 65 | 1012.4 |
| 20260508073110 | 10 | 180 | 1.6 | 8.0 | 0.00 | 0.00 | 0.00 | 65 | 1012.4 |
| 20260508073008 | 10 | 180 | 1.6 | 8.0 | 0.00 | 0.00 | 0.00 | 65 | 1012.3 |
| 20260508072901 | 10 | 180 | 1.6 | 8.0 | 0.00 | 0.00 | 0.00 | 65 | 1012.3 |
| 20260508072701 | 10 | 180 | 1.6 | 8.0 | 0.00 | 0.00 | 0.00 | 65 | 1012.3 |
| 20260508072559 | 10 | 180 | 1.6 | 9.7 | 0.00 | 0.00 | 0.00 | 65 | 1012.4 |
| 20260508072504 | 10 | 180 | 1.6 | 9.7 | 0.00 | 0.00 | 0.00 | 65 | 1012.4 |
| 20260508072357 | 10 | 180 | 1.6 | 9.7 | 0.00 | 0.00 | 0.00 | 65 | 1012.4 |
| 20260508072258 | 10 | 180 | 3.2 | 9.7 | 0.00 | 0.00 | 0.00 | 65 | 1012.4 |
| 20260508072153 | 10 | 180 | 3.2 | 9.7 | 0.00 | 0.00 | 0.00 | 65 | 1012.3 |
| 20260508072052 | 10 | 180 | 3.2 | 9.7 | 0.00 | 0.00 | 0.00 | 65 | 1012.4 |
| 20260508071949 | 10 | 180 | 3.2 | 9.7 | 0.00 | 0.00 | 0.00 | 65 | 1012.4 |
| 20260508071850 | 10 | 180 | 3.2 | 9.7 | 0.00 | 0.00 | 0.00 | 65 | 1012.4 |
| 20260508071751 | 10 | 180 | 3.2 | 9.7 | 0.00 | 0.00 | 0.00 | 65 | 1012.4 |
| 20260508071648 | 10 | 180 | 3.2 | 9.7 | 0.00 | 0.00 | 0.00 | 65 | 1012.4 |
| 20260508071544 | 10 | 180 | 3.2 | 8.0 | 0.00 | 0.00 | 0.00 | 65 | 1012.4 |
| 20260508071446 | 10 | 180 | 3.2 | 8.0 | 0.00 | 0.00 | 0.00 | 65 | 1012.4 |
| 20260508071340 | 10 | 180 | 3.2 | 8.0 | 0.00 | 0.00 | 0.00 | 65 | 1012.4 |
| 20260508071238 | 10 | 180 | 1.6 | 8.0 | 0.00 | 0.00 | 0.00 | 66 | 1012.6 |
| 20260508071138 | 10 | 180 | 1.6 | 8.0 | 0.00 | 0.00 | 0.00 | 65 | 1012.6 |
| 20260508071038 | 10 | 180 | 1.6 | 6.4 | 0.00 | 0.00 | 0.00 | 65 | 1012.6 |
| 20260508070935 | 10 | 180 | 1.6 | 6.4 | 0.00 | 0.00 | 0.00 | 66 | 1012.6 |
| 20260508070835 | 10 | 180 | 1.6 | 6.4 | 0.00 | 0.00 | 0.00 | 65 | 1012.6 |
| 20260508070734 | 10 | 180 | 1.6 | 8.0 | 0.00 | 0.00 | 0.00 | 65 | 1012.6 |
| 20260508070635 | 10 | 180 | 1.6 | 8.0 | 0.00 | 0.00 | 0.00 | 65 | 1012.6 |
| 20260508070536 | 10 | 180 | 1.6 | 8.0 | 0.00 | 0.00 | 0.00 | 65 | 1012.6 |
| 20260508070434 | 10 | 180 | 1.6 | 8.0 | 0.00 | 0.00 | 0.00 | 65 | 1012.7 |
| 20260508070232 | 10 | 180 | 1.6 | 8.0 | 0.00 | 0.00 | 0.00 | 65 | 1012.7 |
| 20260508070133 | 10 | 180 | 1.6 | 8.0 | 0.00 | 0.00 | 0.00 | 65 | 1012.7 |
| 20260508070033 | 10 | 180 | 1.6 | 8.0 | 0.00 | 0.00 | 0.00 | 66 | 1012.7 |
| 20260508065930 | 10 | 180 | 1.6 | 8.0 | 0.00 | 0.00 | 0.00 | 65 | 1012.7 |
| 20260508065830 | 10 | 180 | 1.6 | 8.0 | 0.00 | 0.00 | 0.00 | 65 | 1012.7 |
| 20260508065732 | 10 | 180 | 1.6 | 4.8 | 0.00 | 0.00 | 0.00 | 65 | 1012.7 |
| 20260508065630 | 10 | 180 | 1.6 | 6.4 | 0.00 | 0.00 | 0.00 | 65 | 1012.7 |
| 20260508065528 | 10 | 180 | 1.6 | 9.7 | 0.00 | 0.00 | 0.00 | 65 | 1012.7 |
| 20260508065429 | 10 | 180 | 3.2 | 9.7 | 0.00 | 0.00 | 0.00 | 65 | 1012.7 |
| 20260508065328 | 10 | 180 | 3.2 | 9.7 | 0.00 | 0.00 | 0.00 | 66 | 1012.7 |
| 20260508065227 | 10 | 180 | 3.2 | 9.7 | 0.00 | 0.00 | 0.00 | 66 | 1012.7 |
| 20260508065123 | 10 | 180 | 3.2 | 9.7 | 0.00 | 0.00 | 0.00 | 65 | 1012.7 |
| 20260508065024 | 10 | 180 | 3.2 | 9.7 | 0.00 | 0.00 | 0.00 | 66 | 1012.7 |
| 20260508064922 | 10 | 180 | 3.2 | 9.7 | 0.00 | 0.00 | 0.00 | 66 | 1012.8 |
| 20260508064827 | 10 | 180 | 3.2 | 17.7 | 0.00 | 0.00 | 0.00 | 66 | 1012.8 |
| 20260508064717 | 10 | 180 | 3.2 | 17.7 | 0.00 | 0.00 | 0.00 | 66 | 1012.8 |
| 20260508064627 | 10 | 180 | 3.2 | 17.7 | 0.00 | 0.00 | 0.00 | 66 | 1012.9 |
| 20260508064511 | 9 | 180 | 3.2 | 17.7 | 0.00 | 0.00 | 0.00 | 66 | 1012.9 |
| 20260508064413 | 9 | 180 | 1.6 | 17.7 | 0.00 | 0.00 | 0.00 | 66 | 1012.9 |
| 20260508064306 | 9 | 180 | 1.6 | 17.7 | 0.00 | 0.00 | 0.00 | 66 | 1012.9 |
| 20260508064204 | 9 | 180 | 1.6 | 17.7 | 0.00 | 0.00 | 0.00 | 66 | 1012.9 |
| 20260508064103 | 9 | 180 | 1.6 | 17.7 | 0.00 | 0.00 | 0.00 | 66 | 1012.9 |
| 20260508064004 | 9 | 180 | 1.6 | 17.7 | 0.00 | 0.00 | 0.00 | 66 | 1012.8 |
| 20260508063902 | 9 | 180 | 1.6 | 17.7 | 0.00 | 0.00 | 0.00 | 66 | 1012.9 |
| 20260508063803 | 9 | 180 | 1.6 | 6.4 | 0.00 | 0.00 | 0.00 | 66 | 1012.8 |
| 20260508063700 | 9 | 180 | 1.6 | 6.4 | 0.00 | 0.00 | 0.00 | 65 | 1012.8 |
| 20260508063600 | 9 | 180 | 1.6 | 9.7 | 0.00 | 0.00 | 0.00 | 66 | 1012.8 |
| 20260508063500 | 9 | 180 | 1.6 | 9.7 | 0.00 | 0.00 | 0.00 | 65 | 1012.8 |
| 20260508063401 | 9 | 180 | 1.6 | 9.7 | 0.00 | 0.00 | 0.00 | 66 | 1012.8 |
| 20260508063300 | 9 | 180 | 1.6 | 9.7 | 0.00 | 0.00 | 0.00 | 66 | 1012.8 |
| 20260508063200 | 9 | 180 | 1.6 | 9.7 | 0.00 | 0.00 | 0.00 | 66 | 1012.8 |
| 20260508063101 | 9 | 180 | 1.6 | 9.7 | 0.00 | 0.00 | 0.00 | 66 | 1012.8 |
| 20260508062956 | 9 | 180 | 1.6 | 9.7 | 0.00 | 0.00 | 0.00 | 66 | 1012.8 |
| 20260508062856 | 9 | 180 | 1.6 | 9.7 | 0.00 | 0.00 | 0.00 | 65 | 1012.8 |
| 20260508062753 | 9 | 180 | 1.6 | 9.7 | 0.00 | 0.00 | 0.00 | 65 | 1012.8 |
| 20260508062656 | 9 | 180 | 1.6 | 9.7 | 0.00 | 0.00 | 0.00 | 66 | 1012.8 |
| 20260508062556 | 9 | 180 | 1.6 | 6.4 | 0.00 | 0.00 | 0.00 | 65 | 1012.8 |
| 20260508062454 | 9 | 180 | 1.6 | 6.4 | 0.00 | 0.00 | 0.00 | 65 | 1012.8 |
| 20260508062352 | 9 | 180 | 1.6 | 6.4 | 0.00 | 0.00 | 0.00 | 66 | 1012.8 |
| 20260508062253 | 9 | 180 | 1.6 | 6.4 | 0.00 | 0.00 | 0.00 | 66 | 1012.8 |
| 20260508062153 | 10 | 180 | 1.6 | 6.4 | 0.00 | 0.00 | 0.00 | 66 | 1012.8 |
| 20260508062053 | 9 | 180 | 1.6 | 6.4 | 0.00 | 0.00 | 0.00 | 65 | 1012.8 |
| 20260508061954 | 10 | 180 | 1.6 | 6.4 | 0.00 | 0.00 | 0.00 | 65 | 1012.8 |
| 20260508061853 | 10 | 180 | 1.6 | 6.4 | 0.00 | 0.00 | 0.00 | 66 | 1012.9 |
| 20260508061754 | 10 | 180 | 1.6 | 6.4 | 0.00 | 0.00 | 0.00 | 65 | 1012.9 |
| 20260508061654 | 10 | 180 | 1.6 | 6.4 | 0.00 | 0.00 | 0.00 | 65 | 1012.9 |
| 20260508061553 | 10 | 180 | 1.6 | 6.4 | 0.00 | 0.00 | 0.00 | 65 | 1012.9 |
| 20260508061453 | 10 | 180 | 1.6 | 9.7 | 0.00 | 0.00 | 0.00 | 65 | 1012.9 |
| 20260508061352 | 10 | 180 | 1.6 | 9.7 | 0.00 | 0.00 | 0.00 | 66 | 1012.9 |
| 20260508061254 | 10 | 180 | 1.6 | 9.7 | 0.00 | 0.00 | 0.00 | 65 | 1012.9 |
| 20260508061152 | 10 | 180 | 1.6 | 9.7 | 0.00 | 0.00 | 0.00 | 65 | 1012.9 |
| 20260508061054 | 10 | 180 | 1.6 | 9.7 | 0.00 | 0.00 | 0.00 | 65 | 1012.9 |
| 20260508060953 | 10 | 180 | 1.6 | 9.7 | 0.00 | 0.00 | 0.00 | 65 | 1012.9 |
| 20260508060852 | 10 | 180 | 1.6 | 9.7 | 0.00 | 0.00 | 0.00 | 66 | 1012.9 |
| 20260508060752 | 10 | 180 | 1.6 | 9.7 | 0.00 | 0.00 | 0.00 | 65 | 1012.9 |
| 20260508060652 | 10 | 180 | 1.6 | 9.7 | 0.00 | 0.00 | 0.00 | 66 | 1012.9 |
| 20260508060552 | 10 | 180 | 1.6 | 9.7 | 0.00 | 0.00 | 0.00 | 66 | 1012.9 |
| 20260508060452 | 10 | 180 | 1.6 | 6.4 | 0.00 | 0.00 | 0.00 | 66 | 1012.9 |
| 20260508060355 | 10 | 180 | 1.6 | 6.4 | 0.00 | 0.00 | 0.00 | 66 | 1012.9 |
| 20260508060254 | 10 | 180 | 1.6 | 6.4 | 0.00 | 0.00 | 0.00 | 65 | 1013.0 |
| 20260508060158 | 9 | 180 | 1.6 | 6.4 | 0.00 | 0.00 | 0.00 | 66 | 1012.9 |
| 20260508060053 | 9 | 180 | 1.6 | 6.4 | 0.00 | 0.00 | 0.00 | 66 | 1013.0 |
| 20260508055954 | 9 | 180 | 1.6 | 6.4 | 0.00 | 0.00 | 0.00 | 66 | 1012.9 |
| 20260508055852 | 9 | 180 | 1.6 | 6.4 | 0.00 | 0.00 | 0.00 | 66 | 1012.9 |
| 20260508055752 | 9 | 180 | 1.6 | 6.4 | 0.00 | 0.00 | 0.00 | 66 | 1012.9 |
| 20260508055654 | 9 | 180 | 1.6 | 6.4 | 0.00 | 0.00 | 0.00 | 66 | 1012.9 |
| 20260508055553 | 9 | 180 | 1.6 | 6.4 | 0.00 | 0.00 | 0.00 | 66 | 1012.9 |
| 20260508055451 | 9 | 180 | 1.6 | 6.4 | 0.00 | 0.00 | 0.00 | 66 | 1013.0 |
| 20260508055354 | 9 | 180 | 1.6 | 6.4 | 0.00 | 0.00 | 0.00 | 66 | 1013.0 |
| 20260508055253 | 10 | 180 | 1.6 | 6.4 | 0.00 | 0.00 | 0.00 | 66 | 1012.9 |
| 20260508055151 | 10 | 180 | 1.6 | 4.8 | 0.00 | 0.00 | 0.00 | 66 | 1012.9 |
| 20260508055058 | 10 | 180 | 1.6 | 4.8 | 0.00 | 0.00 | 0.00 | 66 | 1012.9 |
| 20260508054953 | 10 | 180 | 1.6 | 4.8 | 0.00 | 0.00 | 0.00 | 66 | 1013.0 |
| 20260508054853 | 10 | 180 | 1.6 | 6.4 | 0.00 | 0.00 | 0.00 | 66 | 1013.0 |
| 20260508054753 | 10 | 180 | 1.6 | 6.4 | 0.00 | 0.00 | 0.00 | 66 | 1013.0 |
| 20260508054654 | 10 | 180 | 1.6 | 8.0 | 0.00 | 0.00 | 0.00 | 66 | 1012.9 |
| 20260508054553 | 10 | 180 | 1.6 | 8.0 | 0.00 | 0.00 | 0.00 | 66 | 1012.9 |
| 20260508054454 | 10 | 180 | 1.6 | 8.0 | 0.00 | 0.00 | 0.00 | 66 | 1012.9 |
| 20260508054352 | 10 | 180 | 1.6 | 8.0 | 0.00 | 0.00 | 0.00 | 66 | 1012.9 |
| 20260508054254 | 10 | 180 | 1.6 | 8.0 | 0.00 | 0.00 | 0.00 | 66 | 1012.9 |
| 20260508054203 | 10 | 180 | 1.6 | 8.0 | 0.00 | 0.00 | 0.00 | 66 | 1012.9 |
| 20260508054053 | 10 | 180 | 1.6 | 8.0 | 0.00 | 0.00 | 0.00 | 66 | 1012.9 |
| 20260508053952 | 10 | 180 | 1.6 | 8.0 | 0.00 | 0.00 | 0.00 | 66 | 1013.0 |
| 20260508053852 | 10 | 180 | 1.6 | 8.0 | 0.00 | 0.00 | 0.00 | 66 | 1012.9 |
| 20260508053755 | 10 | 180 | 1.6 | 8.0 | 0.00 | 0.00 | 0.00 | 66 | 1012.9 |
| 20260508053654 | 10 | 180 | 1.6 | 8.0 | 0.00 | 0.00 | 0.00 | 66 | 1012.9 |
| 20260508053553 | 10 | 180 | 1.6 | 8.0 | 0.00 | 0.00 | 0.00 | 67 | 1012.9 |
| 20260508053454 | 10 | 180 | 1.6 | 8.0 | 0.00 | 0.00 | 0.00 | 67 | 1012.9 |
| 20260508053353 | 10 | 180 | 1.6 | 8.0 | 0.00 | 0.00 | 0.00 | 66 | 1012.9 |
| 20260508053255 | 10 | 180 | 1.6 | 8.0 | 0.00 | 0.00 | 0.00 | 67 | 1012.9 |
| 20260508053158 | 10 | 180 | 1.6 | 8.0 | 0.00 | 0.00 | 0.00 | 66 | 1012.9 |
| 20260508053053 | 10 | 180 | 1.6 | 8.0 | 0.00 | 0.00 | 0.00 | 66 | 1012.9 |
| 20260508052953 | 10 | 180 | 1.6 | 8.0 | 0.00 | 0.00 | 0.00 | 67 | 1012.9 |
| 20260508052853 | 10 | 180 | 1.6 | 8.0 | 0.00 | 0.00 | 0.00 | 66 | 1012.9 |
| 20260508052751 | 10 | 180 | 1.6 | 8.0 | 0.00 | 0.00 | 0.00 | 67 | 1012.9 |
| 20260508052652 | 10 | 180 | 1.6 | 6.4 | 0.00 | 0.00 | 0.00 | 67 | 1012.9 |
| 20260508052552 | 10 | 180 | 1.6 | 6.4 | 0.00 | 0.00 | 0.00 | 67 | 1013.0 |
| 20260508052453 | 10 | 180 | 1.6 | 6.4 | 0.00 | 0.00 | 0.00 | 67 | 1012.9 |
| 20260508052353 | 10 | 180 | 1.6 | 6.4 | 0.00 | 0.00 | 0.00 | 67 | 1012.9 |
| 20260508052252 | 10 | 180 | 1.6 | 6.4 | 0.00 | 0.00 | 0.00 | 67 | 1012.9 |
| 20260508052153 | 10 | 180 | 1.6 | 6.4 | 0.00 | 0.00 | 0.00 | 67 | 1013.0 |
| 20260508052052 | 10 | 180 | 1.6 | 6.4 | 0.00 | 0.00 | 0.00 | 68 | 1013.0 |
| 20260508051954 | 10 | 180 | 1.6 | 6.4 | 0.00 | 0.00 | 0.00 | 67 | 1012.9 |
| 20260508051851 | 10 | 180 | 1.6 | 6.4 | 0.00 | 0.00 | 0.00 | 68 | 1013.0 |
| 20260508051753 | 10 | 180 | 1.6 | 6.4 | 0.00 | 0.00 | 0.00 | 68 | 1013.0 |
| 20260508051654 | 10 | 180 | 1.6 | 4.8 | 0.00 | 0.00 | 0.00 | 68 | 1013.0 |
| 20260508051552 | 10 | 180 | 1.6 | 4.8 | 0.00 | 0.00 | 0.00 | 69 | 1012.9 |
| 20260508051452 | 10 | 180 | 1.6 | 4.8 | 0.00 | 0.00 | 0.00 | 69 | 1013.0 |
| 20260508051353 | 9 | 180 | 1.6 | 8.0 | 0.00 | 0.00 | 0.00 | 69 | 1013.0 |
| 20260508051253 | 9 | 180 | 1.6 | 8.0 | 0.00 | 0.00 | 0.00 | 69 | 1013.0 |
| 20260508051156 | 9 | 180 | 1.6 | 8.0 | 0.00 | 0.00 | 0.00 | 70 | 1013.0 |
| 20260508051057 | 9 | 180 | 1.6 | 8.0 | 0.00 | 0.00 | 0.00 | 70 | 1013.0 |
| 20260508050952 | 9 | 180 | 1.6 | 8.0 | 0.00 | 0.00 | 0.00 | 70 | 1013.0 |
| 20260508050852 | 9 | 180 | 1.6 | 8.0 | 0.00 | 0.00 | 0.00 | 70 | 1013.0 |
| 20260508050759 | 9 | 180 | 1.6 | 8.0 | 0.00 | 0.00 | 0.00 | 69 | 1013.0 |
| 20260508050657 | 9 | 180 | 1.6 | 8.0 | 0.00 | 0.00 | 0.00 | 70 | 1013.0 |
| 20260508050552 | 9 | 180 | 1.6 | 8.0 | 0.00 | 0.00 | 0.00 | 70 | 1013.0 |
| 20260508050452 | 9 | 180 | 1.6 | 8.0 | 0.00 | 0.00 | 0.00 | 70 | 1013.0 |
| 20260508050353 | 9 | 180 | 1.6 | 6.4 | 0.00 | 0.00 | 0.00 | 70 | 1013.0 |
| 20260508050253 | 9 | 180 | 1.6 | 4.8 | 0.00 | 0.00 | 0.00 | 71 | 1013.0 |
| 20260508050156 | 9 | 180 | 1.6 | 4.8 | 0.00 | 0.00 | 0.00 | 71 | 1013.0 |
| 20260508050053 | 9 | 180 | 1.6 | 4.8 | 0.00 | 0.00 | 0.00 | 71 | 1013.0 |
| 20260508045953 | 9 | 180 | 1.6 | 4.8 | 0.00 | 0.00 | 0.00 | 71 | 1013.0 |
| 20260508045852 | 9 | 180 | 1.6 | 4.8 | 0.00 | 0.00 | 0.00 | 72 | 1013.0 |
| 20260508045752 | 9 | 180 | 1.6 | 4.8 | 0.00 | 0.00 | 0.00 | 72 | 1013.0 |
| 20260508045653 | 9 | 180 | 1.6 | 4.8 | 0.00 | 0.00 | 0.00 | 72 | 1013.0 |
| 20260508045554 | 9 | 180 | 1.6 | 4.8 | 0.00 | 0.00 | 0.00 | 72 | 1013.0 |
| 20260508045451 | 9 | 180 | 1.6 | 4.8 | 0.00 | 0.00 | 0.00 | 72 | 1013.0 |
| 20260508045354 | 8 | 180 | 1.6 | 4.8 | 0.00 | 0.00 | 0.00 | 73 | 1013.0 |
| 20260508045253 | 8 | 180 | 1.6 | 4.8 | 0.00 | 0.00 | 0.00 | 73 | 1013.1 |
| 20260508045153 | 8 | 180 | 1.6 | 4.8 | 0.00 | 0.00 | 0.00 | 73 | 1013.0 |
| 20260508045053 | 8 | 180 | 1.6 | 4.8 | 0.00 | 0.00 | 0.00 | 74 | 1013.0 |
| 20260508044952 | 8 | 180 | 1.6 | 4.8 | 0.00 | 0.00 | 0.00 | 74 | 1013.0 |
| 20260508044853 | 8 | 180 | 1.6 | 4.8 | 0.00 | 0.00 | 0.00 | 74 | 1013.1 |
| 20260508044754 | 8 | 180 | 1.6 | 4.8 | 0.00 | 0.00 | 0.00 | 75 | 1013.0 |
| 20260508044654 | 8 | 180 | 0.0 | 4.8 | 0.00 | 0.00 | 0.00 | 75 | 1013.1 |
| 20260508044554 | 8 | 180 | 0.0 | 4.8 | 0.00 | 0.00 | 0.00 | 76 | 1013.1 |
| 20260508044454 | 8 | 180 | 0.0 | 4.8 | 0.00 | 0.00 | 0.00 | 76 | 1013.0 |
| 20260508044354 | 8 | 180 | 0.0 | 4.8 | 0.00 | 0.00 | 0.00 | 76 | 1013.1 |
| 20260508044252 | 8 | 180 | 0.0 | 4.8 | 0.00 | 0.00 | 0.00 | 76 | 1013.1 |
| 20260508044149 | 8 | 180 | 0.0 | 4.8 | 0.00 | 0.00 | 0.00 | 76 | 1013.1 |
| 20260508044048 | 8 | 180 | 0.0 | 1.6 | 0.00 | 0.00 | 0.00 | 77 | 1013.1 |
| 20260508043950 | 8 | 180 | 0.0 | 1.6 | 0.00 | 0.00 | 0.00 | 78 | 1013.0 |
| 20260508043849 | 8 | 180 | 0.0 | 1.6 | 0.00 | 0.00 | 0.00 | 78 | 1013.0 |
| 20260508043745 | 8 | 180 | 0.0 | 1.6 | 0.00 | 0.00 | 0.00 | 78 | 1013.0 |
| 20260508043645 | 8 | 180 | 0.0 | 1.6 | 0.00 | 0.00 | 0.00 | 78 | 1013.0 |
| 20260508043546 | 8 | 180 | 0.0 | 1.6 | 0.00 | 0.00 | 0.00 | 78 | 1013.0 |
| 20260508043449 | 8 | 180 | 0.0 | 4.8 | 0.00 | 0.00 | 0.00 | 78 | 1013.0 |
| 20260508043345 | 8 | 180 | 0.0 | 4.8 | 0.00 | 0.00 | 0.00 | 78 | 1013.0 |
| 20260508043243 | 8 | 180 | 0.0 | 4.8 | 0.00 | 0.00 | 0.00 | 78 | 1013.0 |
| 20260508043144 | 8 | 180 | 0.0 | 4.8 | 0.00 | 0.00 | 0.00 | 78 | 1013.0 |
| 20260508043043 | 8 | 180 | 0.0 | 4.8 | 0.00 | 0.00 | 0.00 | 78 | 1013.0 |
| 20260508042943 | 8 | 180 | 1.6 | 6.4 | 0.00 | 0.00 | 0.00 | 79 | 1013.0 |
| 20260508042846 | 8 | 180 | 1.6 | 6.4 | 0.00 | 0.00 | 0.00 | 78 | 1013.0 |
| 20260508042741 | 8 | 180 | 1.6 | 6.4 | 0.00 | 0.00 | 0.00 | 79 | 1013.0 |
| 20260508042640 | 8 | 180 | 1.6 | 6.4 | 0.00 | 0.00 | 0.00 | 79 | 1013.0 |
| 20260508042539 | 8 | 180 | 1.6 | 6.4 | 0.00 | 0.00 | 0.00 | 79 | 1013.0 |
| 20260508042441 | 8 | 180 | 1.6 | 6.4 | 0.00 | 0.00 | 0.00 | 79 | 1013.0 |
| 20260508042341 | 8 | 180 | 1.6 | 6.4 | 0.00 | 0.00 | 0.00 | 79 | 1013.0 |
| 20260508042239 | 8 | 180 | 1.6 | 6.4 | 0.00 | 0.00 | 0.00 | 79 | 1013.0 |
| 20260508042138 | 8 | 180 | 1.6 | 6.4 | 0.00 | 0.00 | 0.00 | 79 | 1013.0 |
| 20260508042044 | 8 | 180 | 1.6 | 6.4 | 0.00 | 0.00 | 0.00 | 79 | 1013.0 |
| 20260508041938 | 8 | 180 | 1.6 | 4.8 | 0.00 | 0.00 | 0.00 | 79 | 1013.0 |
| 20260508041835 | 8 | 180 | 1.6 | 4.8 | 0.00 | 0.00 | 0.00 | 79 | 1013.0 |
| 20260508041737 | 8 | 180 | 1.6 | 4.8 | 0.00 | 0.00 | 0.00 | 79 | 1013.0 |
| 20260508041634 | 8 | 180 | 0.0 | 4.8 | 0.00 | 0.00 | 0.00 | 79 | 1013.0 |
| 20260508041534 | 8 | 180 | 0.0 | 4.8 | 0.00 | 0.00 | 0.00 | 79 | 1013.0 |
| 20260508041431 | 8 | 180 | 0.0 | 4.8 | 0.00 | 0.00 | 0.00 | 79 | 1013.0 |
| 20260508041331 | 8 | 180 | 0.0 | 4.8 | 0.00 | 0.00 | 0.00 | 79 | 1013.0 |
| 20260508041229 | 8 | 180 | 0.0 | 4.8 | 0.00 | 0.00 | 0.00 | 79 | 1013.0 |
| 20260508041127 | 8 | 180 | 0.0 | 4.8 | 0.00 | 0.00 | 0.00 | 79 | 1013.0 |
| 20260508041029 | 8 | 180 | 0.0 | 3.2 | 0.00 | 0.00 | 0.00 | 79 | 1013.0 |
| 20260508040927 | 8 | 180 | 0.0 | 3.2 | 0.00 | 0.00 | 0.00 | 80 | 1013.0 |
| 20260508040827 | 8 | 180 | 0.0 | 3.2 | 0.00 | 0.00 | 0.00 | 80 | 1013.0 |
| 20260508040726 | 8 | 180 | 0.0 | 4.8 | 0.00 | 0.00 | 0.00 | 80 | 1013.0 |
| 20260508040626 | 8 | 180 | 0.0 | 4.8 | 0.00 | 0.00 | 0.00 | 80 | 1013.0 |
| 20260508040522 | 7 | 180 | 0.0 | 4.8 | 0.00 | 0.00 | 0.00 | 80 | 1013.0 |
| 20260508040426 | 7 | 180 | 1.6 | 4.8 | 0.00 | 0.00 | 0.00 | 80 | 1013.0 |
| 20260508040317 | 7 | 180 | 1.6 | 4.8 | 0.00 | 0.00 | 0.00 | 80 | 1013.0 |
| 20260508040219 | 7 | 180 | 1.6 | 4.8 | 0.00 | 0.00 | 0.00 | 80 | 1012.9 |
| 20260508040118 | 7 | 180 | 1.6 | 4.8 | 0.00 | 0.00 | 0.00 | 80 | 1012.9 |
| 20260508040017 | 7 | 180 | 1.6 | 4.8 | 0.00 | 0.00 | 0.00 | 80 | 1012.9 |
| 20260508035916 | 7 | 180 | 1.6 | 4.8 | 0.00 | 0.00 | 0.00 | 81 | 1012.9 |
| 20260508035815 | 7 | 180 | 1.6 | 4.8 | 0.00 | 0.00 | 0.00 | 81 | 1012.9 |
| 20260508035715 | 7 | 180 | 1.6 | 4.8 | 0.00 | 0.00 | 0.00 | 81 | 1012.9 |
| 20260508035614 | 7 | 180 | 1.6 | 4.8 | 0.00 | 0.00 | 0.00 | 81 | 1012.9 |
| 20260508035515 | 7 | 180 | 1.6 | 6.4 | 0.00 | 0.00 | 0.00 | 81 | 1012.9 |
| 20260508035414 | 7 | 180 | 1.6 | 6.4 | 0.00 | 0.00 | 0.00 | 81 | 1012.9 |
| 20260508035312 | 7 | 180 | 1.6 | 6.4 | 0.00 | 0.00 | 0.00 | 82 | 1012.8 |
| 20260508035214 | 7 | 180 | 1.6 | 6.4 | 0.00 | 0.00 | 0.00 | 82 | 1012.8 |
| 20260508035112 | 7 | 180 | 1.6 | 6.4 | 0.00 | 0.00 | 0.00 | 82 | 1012.8 |
| 20260508035014 | 7 | 180 | 1.6 | 6.4 | 0.00 | 0.00 | 0.00 | 82 | 1012.8 |
| 20260508034914 | 7 | 180 | 1.6 | 6.4 | 0.00 | 0.00 | 0.00 | 82 | 1012.9 |
| 20260508034813 | 7 | 180 | 1.6 | 6.4 | 0.00 | 0.00 | 0.00 | 82 | 1012.9 |
| 20260508034715 | 7 | 180 | 1.6 | 6.4 | 0.00 | 0.00 | 0.00 | 82 | 1012.9 |
| 20260508034620 | 7 | 180 | 1.6 | 6.4 | 0.00 | 0.00 | 0.00 | 83 | 1012.9 |